Wetterdaten: Sonntag, 26.03.2017
Datum Zeit Temp. A. Feuchte A. Luftdruck Regen Wind Richtung Richtung Sonnenschein ET UV Solar Taupunkt Windchill Windben Empfang
26.03.2017 00:00 5,2 C 74 % 1020,5 hPa 0,0 l/m 7,3 km/h (2 Bft) O 96 0 min 0,000 mm 0,0 UV-I 0 W/m 1,0 C 4,4 C 11,3 km/h (2 Bft) 97,56 %
26.03.2017 00:02 5,2 C 74 % 1020,5 hPa 0,0 l/m 11,3 km/h (2 Bft) O 93 0 min 0,000 mm 0,0 UV-I 0 W/m 1,0 C 1,4 C 11,3 km/h (2 Bft) 97,56 %
26.03.2017 00:04 5,3 C 73 % 1020,5 hPa 0,0 l/m 6,9 km/h (2 Bft) O-NO 71 0 min 0,000 mm 0,0 UV-I 0 W/m 0,9 C 4,9 C 12,9 km/h (3 Bft) 97,44 %
26.03.2017 00:06 5,4 C 73 % 1020,5 hPa 0,0 l/m 8,0 km/h (2 Bft) O 99 0 min 0,000 mm 0,0 UV-I 0 W/m 1,0 C 4,0 C 12,9 km/h (3 Bft) 100,00 %
26.03.2017 00:08 5,5 C 72 % 1020,4 hPa 0,0 l/m 8,0 km/h (2 Bft) O 84 0 min 0,000 mm 0,0 UV-I 0 W/m 0,9 C 4,1 C 12,9 km/h (3 Bft) 97,87 %
26.03.2017 00:10 5,6 C 72 % 1020,5 hPa 0,0 l/m 7,5 km/h (2 Bft) O 92 0 min 0,000 mm 0,0 UV-I 0 W/m 1,0 C 4,6 C 12,9 km/h (3 Bft) 100,00 %
26.03.2017 00:12 5,6 C 72 % 1020,5 hPa 0,0 l/m 5,9 km/h (2 Bft) O 94 0 min 0,000 mm 0,0 UV-I 0 W/m 1,0 C 5,6 C 11,3 km/h (2 Bft) 98,11 %
26.03.2017 00:14 5,6 C 71 % 1020,4 hPa 0,0 l/m 6,5 km/h (2 Bft) O-SO 107 0 min 0,000 mm 0,0 UV-I 0 W/m 0,8 C 5,5 C 12,9 km/h (3 Bft) 98,11 %
26.03.2017 00:16 5,5 C 72 % 1020,5 hPa 0,0 l/m 6,0 km/h (2 Bft) O 99 0 min 0,000 mm 0,0 UV-I 0 W/m 0,9 C 5,5 C 9,7 km/h (2 Bft) 94,74 %
26.03.2017 00:18 5,4 C 72 % 1020,4 hPa 0,0 l/m 6,2 km/h (2 Bft) O-SO 104 0 min 0,000 mm 0,0 UV-I 0 W/m 0,8 C 5,4 C 9,7 km/h (2 Bft) 98,00 %
26.03.2017 00:20 5,3 C 72 % 1020,5 hPa 0,0 l/m 5,1 km/h (1 Bft) O 92 0 min 0,000 mm 0,0 UV-I 0 W/m 0,7 C 5,3 C 9,7 km/h (2 Bft) 96,00 %
26.03.2017 00:22 5,3 C 72 % 1020,4 hPa 0,0 l/m 5,9 km/h (2 Bft) O-NO 74 0 min 0,000 mm 0,0 UV-I 0 W/m 0,7 C 5,3 C 8,0 km/h (2 Bft) 100,00 %
26.03.2017 00:24 5,2 C 73 % 1020,3 hPa 0,0 l/m 6,0 km/h (2 Bft) O 97 0 min 0,000 mm 0,0 UV-I 0 W/m 0,8 C 5,2 C 12,9 km/h (3 Bft) 87,80 %
26.03.2017 00:26 5,2 C 73 % 1020,5 hPa 0,0 l/m 7,4 km/h (2 Bft) O-SO 114 0 min 0,000 mm 0,0 UV-I 0 W/m 0,8 C 4,3 C 9,7 km/h (2 Bft) 96,43 %
26.03.2017 00:28 5,1 C 74 % 1020,5 hPa 0,0 l/m 6,6 km/h (2 Bft) O-SO 114 0 min 0,000 mm 0,0 UV-I 0 W/m 0,9 C 4,9 C 9,7 km/h (2 Bft) 100,00 %
26.03.2017 00:30 4,9 C 74 % 1020,5 hPa 0,0 l/m 4,0 km/h (1 Bft) O-SO 107 0 min 0,000 mm 0,0 UV-I 0 W/m 0,7 C 4,9 C 6,4 km/h (2 Bft) 95,74 %
26.03.2017 00:32 4,7 C 75 % 1020,5 hPa 0,0 l/m 5,4 km/h (1 Bft) O 88 0 min 0,000 mm 0,0 UV-I 0 W/m 0,7 C 4,7 C 8,0 km/h (2 Bft) 100,00 %
26.03.2017 00:34 4,7 C 75 % 1020,4 hPa 0,0 l/m 8,9 km/h (2 Bft) O 89 0 min 0,000 mm 0,0 UV-I 0 W/m 0,7 C 2,6 C 16,1 km/h (3 Bft) 97,14 %
26.03.2017 00:36 4,9 C 75 % 1020,4 hPa 0,0 l/m 9,2 km/h (2 Bft) O-NO 75 0 min 0,000 mm 0,0 UV-I 0 W/m 0,8 C 2,5 C 14,5 km/h (3 Bft) 98,31 %
26.03.2017 00:38 5,2 C 74 % 1020,5 hPa 0,0 l/m 10,2 km/h (2 Bft) O 81 0 min 0,000 mm 0,0 UV-I 0 W/m 1,0 C 2,2 C 14,5 km/h (3 Bft) 100,00 %
26.03.2017 00:40 5,4 C 72 % 1020,5 hPa 0,0 l/m 10,2 km/h (2 Bft) NO 51 0 min 0,000 mm 0,0 UV-I 0 W/m 0,8 C 2,4 C 14,5 km/h (3 Bft) 98,11 %
26.03.2017 00:42 5,6 C 72 % 1020,5 hPa 0,0 l/m 8,3 km/h (2 Bft) O-NO 60 0 min 0,000 mm 0,0 UV-I 0 W/m 1,0 C 4,0 C 12,9 km/h (3 Bft) 97,37 %
26.03.2017 00:44 5,6 C 71 % 1020,5 hPa 0,0 l/m 8,8 km/h (2 Bft) O-NO 75 0 min 0,000 mm 0,0 UV-I 0 W/m 0,8 C 3,6 C 12,9 km/h (3 Bft) 93,33 %
26.03.2017 00:46 5,5 C 72 % 1020,5 hPa 0,0 l/m 8,3 km/h (2 Bft) O-NO 70 0 min 0,000 mm 0,0 UV-I 0 W/m 0,9 C 3,9 C 11,3 km/h (2 Bft) 96,36 %
26.03.2017 00:48 5,4 C 72 % 1020,3 hPa 0,0 l/m 8,2 km/h (2 Bft) O 86 0 min 0,000 mm 0,0 UV-I 0 W/m 0,8 C 3,9 C 11,3 km/h (2 Bft) 97,78 %
26.03.2017 00:50 5,4 C 72 % 1020,3 hPa 0,0 l/m 6,7 km/h (2 Bft) O 101 0 min 0,000 mm 0,0 UV-I 0 W/m 0,8 C 5,2 C 9,7 km/h (2 Bft) 92,68 %
26.03.2017 00:52 5,4 C 72 % 1020,3 hPa 0,0 l/m 5,0 km/h (1 Bft) O 100 0 min 0,000 mm 0,0 UV-I 0 W/m 0,8 C 5,4 C 8,0 km/h (2 Bft) 96,23 %
26.03.2017 00:54 5,4 C 72 % 1020,3 hPa 0,0 l/m 4,0 km/h (1 Bft) O-SO 118 0 min 0,000 mm 0,0 UV-I 0 W/m 0,8 C 5,4 C 6,4 km/h (2 Bft) 95,74 %
26.03.2017 00:56 5,2 C 73 % 1020,3 hPa 0,0 l/m 2,2 km/h (1 Bft) O-SO 118 0 min 0,000 mm 0,0 UV-I 0 W/m 0,8 C 5,2 C 3,2 km/h (1 Bft) 95,12 %
26.03.2017 00:58 4,9 C 74 % 1020,3 hPa 0,0 l/m 3,0 km/h (1 Bft) O-SO 118 0 min 0,000 mm 0,0 UV-I 0 W/m 0,7 C 4,9 C 4,8 km/h (1 Bft) 95,74 %
26.03.2017 01:00 4,8 C 74 % 1020,3 hPa 0,0 l/m 3,5 km/h (1 Bft) O 92 0 min 0,025 mm 0,0 UV-I 0 W/m 0,6 C 4,8 C 4,8 km/h (1 Bft) 94,00 %
26.03.2017 01:02 4,7 C 75 % 1020,3 hPa 0,0 l/m 3,6 km/h (1 Bft) O-SO 110 0 min 0,000 mm 0,0 UV-I 0 W/m 0,7 C 4,7 C 4,8 km/h (1 Bft) 98,11 %
26.03.2017 01:04 4,6 C 75 % 1020,3 hPa 0,0 l/m 2,6 km/h (1 Bft) O-SO 109 0 min 0,000 mm 0,0 UV-I 0 W/m 0,6 C 4,6 C 4,8 km/h (1 Bft) 97,56 %
26.03.2017 01:06 4,6 C 75 % 1020,3 hPa 0,0 l/m 2,3 km/h (1 Bft) O-SO 109 0 min 0,000 mm 0,0 UV-I 0 W/m 0,6 C 4,6 C 4,8 km/h (1 Bft) 98,11 %
26.03.2017 01:08 4,6 C 75 % 1020,4 hPa 0,0 l/m 4,3 km/h (1 Bft) O 82 0 min 0,000 mm 0,0 UV-I 0 W/m 0,6 C 4,6 C 8,0 km/h (2 Bft) 89,47 %
26.03.2017 01:10 4,7 C 75 % 1020,3 hPa 0,0 l/m 4,8 km/h (1 Bft) O-NO 70 0 min 0,000 mm 0,0 UV-I 0 W/m 0,7 C 4,7 C 8,0 km/h (2 Bft) 93,62 %
26.03.2017 01:12 4,8 C 74 % 1020,3 hPa 0,0 l/m 4,6 km/h (1 Bft) O-NO 64 0 min 0,000 mm 0,0 UV-I 0 W/m 0,6 C 4,8 C 6,4 km/h (2 Bft) 94,00 %
26.03.2017 01:14 4,9 C 74 % 1020,3 hPa 0,0 l/m 4,6 km/h (1 Bft) O-NO 65 0 min 0,000 mm 0,0 UV-I 0 W/m 0,7 C 4,9 C 6,4 km/h (2 Bft) 92,45 %
26.03.2017 01:16 5,1 C 73 % 1020,4 hPa 0,0 l/m 5,2 km/h (1 Bft) O-NO 75 0 min 0,000 mm 0,0 UV-I 0 W/m 0,7 C 5,1 C 6,4 km/h (2 Bft) 95,12 %
26.03.2017 01:18 5,2 C 72 % 1020,4 hPa 0,0 l/m 4,8 km/h (1 Bft) O-NO 75 0 min 0,000 mm 0,0 UV-I 0 W/m 0,6 C 5,2 C 6,4 km/h (2 Bft) 92,00 %
26.03.2017 01:20 5,2 C 72 % 1020,4 hPa 0,0 l/m 5,3 km/h (1 Bft) O-NO 75 0 min 0,000 mm 0,0 UV-I 0 W/m 0,6 C 5,2 C 6,4 km/h (2 Bft) 91,49 %
26.03.2017 01:22 5,2 C 72 % 1020,4 hPa 0,0 l/m 4,2 km/h (1 Bft) O-NO 74 0 min 0,000 mm 0,0 UV-I 0 W/m 0,6 C 5,2 C 6,4 km/h (2 Bft) 91,49 %
26.03.2017 01:24 4,9 C 73 % 1020,5 hPa 0,0 l/m 1,6 km/h (1 Bft) O-NO 59 0 min 0,000 mm 0,0 UV-I 0 W/m 0,5 C 4,9 C 3,2 km/h (1 Bft) 100,00 %
26.03.2017 01:26 4,4 C 76 % 1020,4 hPa 0,0 l/m 1,4 km/h (1 Bft) NO 49 0 min 0,000 mm 0,0 UV-I 0 W/m 0,5 C 4,4 C 3,2 km/h (1 Bft) 92,00 %
26.03.2017 01:28 3,9 C 78 % 1020,4 hPa 0,0 l/m 4,4 km/h (1 Bft) N-NO 19 0 min 0,000 mm 0,0 UV-I 0 W/m 0,4 C 3,9 C 8,0 km/h (2 Bft) 96,15 %
26.03.2017 01:30 3,7 C 79 % 1020,4 hPa 0,0 l/m 6,1 km/h (2 Bft) N-NO 28 0 min 0,000 mm 0,0 UV-I 0 W/m 0,4 C 3,7 C 9,7 km/h (2 Bft) 95,24 %
26.03.2017 01:32 3,8 C 80 % 1020,4 hPa 0,0 l/m 6,1 km/h (2 Bft) N-NO 30 0 min 0,000 mm 0,0 UV-I 0 W/m 0,7 C 3,8 C 8,0 km/h (2 Bft) 96,43 %
26.03.2017 01:34 3,8 C 79 % 1020,4 hPa 0,0 l/m 5,6 km/h (1 Bft) N-NO 31 0 min 0,000 mm 0,0 UV-I 0 W/m 0,5 C 3,8 C 8,0 km/h (2 Bft) 95,12 %
26.03.2017 01:36 3,8 C 79 % 1020,4 hPa 0,0 l/m 2,4 km/h (1 Bft) N-NO 27 0 min 0,000 mm 0,0 UV-I 0 W/m 0,5 C 3,8 C 6,4 km/h (2 Bft) 96,00 %
26.03.2017 01:38 3,7 C 80 % 1020,5 hPa 0,0 l/m 4,0 km/h (1 Bft) N-NO 28 0 min 0,000 mm 0,0 UV-I 0 W/m 0,6 C 3,7 C 6,4 km/h (2 Bft) 95,12 %
26.03.2017 01:40 3,6 C 80 % 1020,5 hPa 0,0 l/m 4,3 km/h (1 Bft) N-NO 22 0 min 0,000 mm 0,0 UV-I 0 W/m 0,5 C 3,6 C 8,0 km/h (2 Bft) 96,43 %
26.03.2017 01:42 3,6 C 80 % 1020,5 hPa 0,0 l/m 5,3 km/h (1 Bft) NO 34 0 min 0,000 mm 0,0 UV-I 0 W/m 0,5 C 3,6 C 8,0 km/h (2 Bft) 95,74 %
26.03.2017 01:44 3,6 C 81 % 1020,5 hPa 0,0 l/m 4,6 km/h (1 Bft) N-NO 27 0 min 0,000 mm 0,0 UV-I 0 W/m 0,7 C 3,6 C 8,0 km/h (2 Bft) 95,12 %
26.03.2017 01:46 3,7 C 81 % 1020,5 hPa 0,0 l/m 5,3 km/h (1 Bft) NO 47 0 min 0,000 mm 0,0 UV-I 0 W/m 0,7 C 3,7 C 6,4 km/h (2 Bft) 100,00 %
26.03.2017 01:48 3,7 C 81 % 1020,4 hPa 0,0 l/m 5,2 km/h (1 Bft) NO 44 0 min 0,000 mm 0,0 UV-I 0 W/m 0,7 C 3,7 C 6,4 km/h (2 Bft) 95,08 %
26.03.2017 01:50 3,7 C 81 % 1020,4 hPa 0,0 l/m 4,4 km/h (1 Bft) N-NO 32 0 min 0,000 mm 0,0 UV-I 0 W/m 0,7 C 3,7 C 8,0 km/h (2 Bft) 94,00 %
26.03.2017 01:53 3,6 C 81 % 1020,3 hPa 0,0 l/m 3,8 km/h (1 Bft) N-NO 30 0 min 0,000 mm 0,0 UV-I 0 W/m 0,7 C 3,6 C 4,8 km/h (1 Bft) 98,39 %
26.03.2017 01:54 3,6 C 81 % 1020,3 hPa 0,0 l/m 5,1 km/h (1 Bft) NO 41 0 min 0,000 mm 0,0 UV-I 0 W/m 0,7 C 3,6 C 6,4 km/h (2 Bft) 91,30 %
26.03.2017 01:56 3,6 C 81 % 1020,4 hPa 0,0 l/m 5,7 km/h (1 Bft) N-NO 29 0 min 0,000 mm 0,0 UV-I 0 W/m 0,7 C 3,6 C 8,0 km/h (2 Bft) 98,11 %
26.03.2017 01:58 3,6 C 81 % 1020,3 hPa 0,0 l/m 6,3 km/h (2 Bft) NO 35 0 min 0,000 mm 0,0 UV-I 0 W/m 0,7 C 3,6 C 8,0 km/h (2 Bft) 95,12 %
26.03.2017 03:00 3,6 C 81 % 1020,3 hPa 0,0 l/m 5,3 km/h (1 Bft) NO 46 0 min 0,000 mm 0,0 UV-I 0 W/m 0,7 C 3,6 C 8,0 km/h (2 Bft) 95,83 %
26.03.2017 03:02 3,6 C 81 % 1020,4 hPa 0,0 l/m 5,2 km/h (1 Bft) O-NO 64 0 min 0,000 mm 0,0 UV-I 0 W/m 0,7 C 3,6 C 8,0 km/h (2 Bft) 86,36 %
26.03.2017 03:04 3,8 C 81 % 1020,3 hPa 0,0 l/m 6,2 km/h (2 Bft) O-NO 74 0 min 0,000 mm 0,0 UV-I 0 W/m 0,8 C 3,8 C 8,0 km/h (2 Bft) 94,64 %
26.03.2017 03:06 3,9 C 81 % 1020,3 hPa 0,0 l/m 7,6 km/h (2 Bft) O 86 0 min 0,000 mm 0,0 UV-I 0 W/m 0,9 C 2,8 C 12,9 km/h (3 Bft) 97,44 %
26.03.2017 03:08 4,1 C 80 % 1020,3 hPa 0,0 l/m 7,1 km/h (2 Bft) NO 56 0 min 0,000 mm 0,0 UV-I 0 W/m 1,0 C 3,5 C 11,3 km/h (2 Bft) 96,00 %
26.03.2017 03:10 4,2 C 79 % 1020,3 hPa 0,0 l/m 4,1 km/h (1 Bft) NO 36 0 min 0,000 mm 0,0 UV-I 0 W/m 0,9 C 4,2 C 8,0 km/h (2 Bft) 100,00 %
26.03.2017 03:12 4,1 C 80 % 1020,3 hPa 0,0 l/m 6,6 km/h (2 Bft) NO 44 0 min 0,000 mm 0,0 UV-I 0 W/m 1,0 C 3,9 C 8,0 km/h (2 Bft) 97,73 %
26.03.2017 03:14 4,2 C 80 % 1020,3 hPa 0,0 l/m 6,0 km/h (2 Bft) NO 41 0 min 0,000 mm 0,0 UV-I 0 W/m 1,1 C 4,2 C 8,0 km/h (2 Bft) 100,00 %
26.03.2017 03:16 4,2 C 80 % 1020,3 hPa 0,0 l/m 5,4 km/h (1 Bft) N-NO 24 0 min 0,000 mm 0,0 UV-I 0 W/m 1,1 C 4,2 C 8,0 km/h (2 Bft) 94,74 %
26.03.2017 03:18 4,2 C 80 % 1020,2 hPa 0,0 l/m 7,6 km/h (2 Bft) NO 54 0 min 0,000 mm 0,0 UV-I 0 W/m 1,1 C 3,1 C 11,3 km/h (2 Bft) 100,00 %
26.03.2017 03:20 4,3 C 79 % 1020,1 hPa 0,0 l/m 6,2 km/h (2 Bft) O-NO 59 0 min 0,000 mm 0,0 UV-I 0 W/m 1,0 C 4,3 C 11,3 km/h (2 Bft) 98,11 %
26.03.2017 03:22 4,6 C 78 % 1020,1 hPa 0,0 l/m 8,0 km/h (2 Bft) O-NO 72 0 min 0,000 mm 0,0 UV-I 0 W/m 1,1 C 3,2 C 12,9 km/h (3 Bft) 95,74 %
26.03.2017 03:24 4,7 C 78 % 1020,0 hPa 0,0 l/m 6,8 km/h (2 Bft) O-NO 69 0 min 0,000 mm 0,0 UV-I 0 W/m 1,2 C 4,4 C 11,3 km/h (2 Bft) 95,12 %
26.03.2017 03:26 4,8 C 77 % 1019,9 hPa 0,0 l/m 7,8 km/h (2 Bft) O-NO 71 0 min 0,000 mm 0,0 UV-I 0 W/m 1,1 C 3,6 C 11,3 km/h (2 Bft) 98,11 %
26.03.2017 03:28 5,0 C 76 % 1019,9 hPa 0,0 l/m 8,4 km/h (2 Bft) NO 54 0 min 0,000 mm 0,0 UV-I 0 W/m 1,1 C 3,3 C 12,9 km/h (3 Bft) 100,00 %
26.03.2017 03:30 5,1 C 76 % 1019,9 hPa 0,0 l/m 9,9 km/h (2 Bft) O-NO 62 0 min 0,000 mm 0,0 UV-I 0 W/m 1,2 C 2,3 C 14,5 km/h (3 Bft) 97,14 %
26.03.2017 03:32 5,1 C 75 % 1019,9 hPa 0,0 l/m 7,4 km/h (2 Bft) O-NO 57 0 min 0,000 mm 0,0 UV-I 0 W/m 1,0 C 4,2 C 11,3 km/h (2 Bft) 100,00 %
26.03.2017 03:34 5,1 C 75 % 1019,9 hPa 0,0 l/m 6,7 km/h (2 Bft) NO 53 0 min 0,000 mm 0,0 UV-I 0 W/m 1,0 C 4,9 C 9,7 km/h (2 Bft) 96,23 %
26.03.2017 03:36 5,0 C 76 % 1019,9 hPa 0,0 l/m 8,0 km/h (2 Bft) O-NO 66 0 min 0,000 mm 0,0 UV-I 0 W/m 1,1 C 3,6 C 11,3 km/h (2 Bft) 97,56 %
26.03.2017 03:38 4,9 C 75 % 1019,9 hPa 0,0 l/m 7,9 km/h (2 Bft) NO 46 0 min 0,000 mm 0,0 UV-I 0 W/m 0,8 C 3,6 C 12,9 km/h (3 Bft) 92,31 %
26.03.2017 03:40 4,9 C 75 % 1019,9 hPa 0,0 l/m 7,0 km/h (2 Bft) NO 42 0 min 0,000 mm 0,0 UV-I 0 W/m 0,8 C 4,4 C 11,3 km/h (2 Bft) 98,08 %
26.03.2017 03:42 4,8 C 76 % 1019,9 hPa 0,0 l/m 6,5 km/h (2 Bft) NO 43 0 min 0,000 mm 0,0 UV-I 0 W/m 0,9 C 4,7 C 11,3 km/h (2 Bft) 100,00 %
26.03.2017 03:44 4,8 C 76 % 1019,9 hPa 0,0 l/m 7,0 km/h (2 Bft) NO 35 0 min 0,000 mm 0,0 UV-I 0 W/m 0,9 C 4,3 C 12,9 km/h (3 Bft) 97,44 %
26.03.2017 03:46 4,8 C 76 % 1019,9 hPa 0,0 l/m 8,1 km/h (2 Bft) NO 48 0 min 0,000 mm 0,0 UV-I 0 W/m 0,9 C 3,3 C 12,9 km/h (3 Bft) 98,18 %
26.03.2017 03:48 4,7 C 77 % 1020,0 hPa 0,0 l/m 7,6 km/h (2 Bft) NO 47 0 min 0,000 mm 0,0 UV-I 0 W/m 1,0 C 3,6 C 12,9 km/h (3 Bft) 97,78 %
26.03.2017 03:50 4,6 C 77 % 1019,9 hPa 0,0 l/m 9,7 km/h (2 Bft) NO 40 0 min 0,000 mm 0,0 UV-I 0 W/m 0,9 C 1,8 C 14,5 km/h (3 Bft) 97,56 %
26.03.2017 03:52 4,6 C 77 % 1019,9 hPa 0,0 l/m 7,0 km/h (2 Bft) NO 55 0 min 0,000 mm 0,0 UV-I 0 W/m 0,9 C 4,1 C 11,3 km/h (2 Bft) 96,00 %
26.03.2017 03:54 4,6 C 77 % 1019,9 hPa 0,0 l/m 6,7 km/h (2 Bft) NO 52 0 min 0,000 mm 0,0 UV-I 0 W/m 0,9 C 4,3 C 12,9 km/h (3 Bft) 97,87 %
26.03.2017 03:56 4,6 C 77 % 1019,9 hPa 0,0 l/m 5,9 km/h (2 Bft) O-NO 61 0 min 0,000 mm 0,0 UV-I 0 W/m 0,9 C 4,6 C 9,7 km/h (2 Bft) 100,00 %
26.03.2017 03:58 4,6 C 77 % 1019,9 hPa 0,0 l/m 6,5 km/h (2 Bft) O-NO 60 0 min 0,000 mm 0,0 UV-I 0 W/m 0,9 C 4,5 C 12,9 km/h (3 Bft) 94,00 %
26.03.2017 04:00 4,6 C 77 % 1019,9 hPa 0,0 l/m 8,4 km/h (2 Bft) NO 53 0 min 0,000 mm 0,0 UV-I 0 W/m 0,9 C 2,9 C 12,9 km/h (3 Bft) 97,56 %
26.03.2017 04:02 4,6 C 77 % 1019,8 hPa 0,0 l/m 7,5 km/h (2 Bft) O-NO 57 0 min 0,026 mm 0,0 UV-I 0 W/m 0,9 C 3,6 C 9,7 km/h (2 Bft) 85,71 %
26.03.2017 04:04 4,7 C 77 % 1019,8 hPa 0,0 l/m 6,7 km/h (2 Bft) NO 43 0 min 0,000 mm 0,0 UV-I 0 W/m 1,0 C 4,4 C 9,7 km/h (2 Bft) 92,11 %
26.03.2017 04:06 4,6 C 77 % 1019,9 hPa 0,0 l/m 6,0 km/h (2 Bft) NO 56 0 min 0,000 mm 0,0 UV-I 0 W/m 0,9 C 4,6 C 8,0 km/h (2 Bft) 98,11 %
26.03.2017 04:08 4,6 C 77 % 1019,9 hPa 0,0 l/m 7,2 km/h (2 Bft) NO 52 0 min 0,000 mm 0,0 UV-I 0 W/m 0,9 C 3,9 C 9,7 km/h (2 Bft) 97,56 %
26.03.2017 04:10 4,6 C 77 % 1019,9 hPa 0,0 l/m 8,0 km/h (2 Bft) NO 36 0 min 0,000 mm 0,0 UV-I 0 W/m 0,9 C 3,2 C 14,5 km/h (3 Bft) 97,73 %
26.03.2017 04:12 4,6 C 77 % 1019,8 hPa 0,0 l/m 7,7 km/h (2 Bft) NO 40 0 min 0,000 mm 0,0 UV-I 0 W/m 0,9 C 3,4 C 11,3 km/h (2 Bft) 98,21 %
26.03.2017 04:14 4,5 C 77 % 1019,9 hPa 0,0 l/m 7,9 km/h (2 Bft) NO 43 0 min 0,000 mm 0,0 UV-I 0 W/m 0,8 C 3,2 C 14,5 km/h (3 Bft) 94,74 %
26.03.2017 04:16 4,6 C 77 % 1019,9 hPa 0,0 l/m 7,5 km/h (2 Bft) O-NO 66 0 min 0,000 mm 0,0 UV-I 0 W/m 0,9 C 3,6 C 12,9 km/h (3 Bft) 94,64 %
26.03.2017 04:18 4,6 C 77 % 1019,9 hPa 0,0 l/m 7,7 km/h (2 Bft) NO 44 0 min 0,000 mm 0,0 UV-I 0 W/m 0,9 C 3,4 C 12,9 km/h (3 Bft) 97,87 %
26.03.2017 04:20 4,6 C 77 % 1019,8 hPa 0,0 l/m 8,5 km/h (2 Bft) NO 56 0 min 0,000 mm 0,0 UV-I 0 W/m 0,9 C 2,8 C 12,9 km/h (3 Bft) 96,00 %
26.03.2017 04:22 4,6 C 77 % 1019,8 hPa 0,0 l/m 9,1 km/h (2 Bft) NO 39 0 min 0,000 mm 0,0 UV-I 0 W/m 0,9 C 2,3 C 14,5 km/h (3 Bft) 97,22 %
26.03.2017 04:24 4,6 C 77 % 1019,8 hPa 0,0 l/m 7,5 km/h (2 Bft) O-NO 74 0 min 0,000 mm 0,0 UV-I 0 W/m 0,9 C 3,6 C 12,9 km/h (3 Bft) 94,34 %
26.03.2017 04:26 4,7 C 77 % 1019,8 hPa 0,0 l/m 10,1 km/h (2 Bft) O-NO 59 0 min 0,000 mm 0,0 UV-I 0 W/m 1,0 C 1,7 C 14,5 km/h (3 Bft) 94,00 %
26.03.2017 04:28 4,7 C 76 % 1019,8 hPa 0,0 l/m 7,9 km/h (2 Bft) O-NO 72 0 min 0,000 mm 0,0 UV-I 0 W/m 0,8 C 3,4 C 12,9 km/h (3 Bft) 94,74 %
26.03.2017 04:30 4,7 C 76 % 1019,8 hPa 0,0 l/m 7,8 km/h (2 Bft) NO 46 0 min 0,000 mm 0,0 UV-I 0 W/m 0,8 C 3,5 C 12,9 km/h (3 Bft) 96,23 %
26.03.2017 04:32 4,6 C 76 % 1019,7 hPa 0,0 l/m 9,4 km/h (2 Bft) O 84 0 min 0,000 mm 0,0 UV-I 0 W/m 0,7 C 2,1 C 14,5 km/h (3 Bft) 98,00 %
26.03.2017 04:34 4,6 C 77 % 1019,7 hPa 0,0 l/m 8,0 km/h (2 Bft) NO 52 0 min 0,000 mm 0,0 UV-I 0 W/m 0,9 C 3,2 C 11,3 km/h (2 Bft) 95,12 %
26.03.2017 04:36 4,6 C 77 % 1019,7 hPa 0,0 l/m 9,2 km/h (2 Bft) NO 54 0 min 0,000 mm 0,0 UV-I 0 W/m 0,9 C 2,2 C 14,5 km/h (3 Bft) 96,23 %
26.03.2017 04:38 4,5 C 77 % 1019,7 hPa 0,0 l/m 9,5 km/h (2 Bft) O-NO 57 0 min 0,000 mm 0,0 UV-I 0 W/m 0,8 C 1,9 C 14,5 km/h (3 Bft) 97,87 %
26.03.2017 04:40 4,5 C 77 % 1019,7 hPa 0,0 l/m 9,5 km/h (2 Bft) O-NO 65 0 min 0,000 mm 0,0 UV-I 0 W/m 0,8 C 1,9 C 14,5 km/h (3 Bft) 95,12 %
26.03.2017 04:42 4,4 C 77 % 1019,7 hPa 0,0 l/m 8,4 km/h (2 Bft) O-NO 74 0 min 0,000 mm 0,0 UV-I 0 W/m 0,7 C 2,6 C 12,9 km/h (3 Bft) 100,00 %
26.03.2017 04:44 4,4 C 77 % 1019,7 hPa 0,0 l/m 8,0 km/h (2 Bft) NO 55 0 min 0,000 mm 0,0 UV-I 0 W/m 0,7 C 3,0 C 12,9 km/h (3 Bft) 94,74 %
26.03.2017 04:46 4,4 C 77 % 1019,8 hPa 0,0 l/m 8,2 km/h (2 Bft) NO 51 0 min 0,000 mm 0,0 UV-I 0 W/m 0,7 C 2,8 C 12,9 km/h (3 Bft) 100,00 %
26.03.2017 04:48 4,4 C 77 % 1019,8 hPa 0,0 l/m 9,6 km/h (2 Bft) NO 54 0 min 0,000 mm 0,0 UV-I 0 W/m 0,7 C 1,7 C 14,5 km/h (3 Bft) 97,56 %
26.03.2017 04:50 4,4 C 77 % 1019,8 hPa 0,0 l/m 9,3 km/h (2 Bft) NO 45 0 min 0,000 mm 0,0 UV-I 0 W/m 0,7 C 1,9 C 14,5 km/h (3 Bft) 96,23 %
26.03.2017 04:52 4,3 C 77 % 1019,8 hPa 0,0 l/m 11,0 km/h (2 Bft) NO 39 0 min 0,000 mm 0,0 UV-I 0 W/m 0,6 C 0,6 C 16,1 km/h (3 Bft) 100,00 %
26.03.2017 04:54 4,3 C 77 % 1019,9 hPa 0,0 l/m 9,0 km/h (2 Bft) O-NO 63 0 min 0,000 mm 0,0 UV-I 0 W/m 0,6 C 2,1 C 12,9 km/h (3 Bft) 100,00 %
26.03.2017 04:56 4,3 C 77 % 1019,9 hPa 0,0 l/m 8,8 km/h (2 Bft) O-NO 57 0 min 0,000 mm 0,0 UV-I 0 W/m 0,6 C 2,2 C 12,9 km/h (3 Bft) 97,87 %
26.03.2017 04:58 4,3 C 77 % 1019,9 hPa 0,0 l/m 9,5 km/h (2 Bft) O-NO 71 0 min 0,000 mm 0,0 UV-I 0 W/m 0,6 C 1,7 C 14,5 km/h (3 Bft) 98,11 %
26.03.2017 05:00 4,3 C 78 % 1019,9 hPa 0,0 l/m 9,7 km/h (2 Bft) NO 38 0 min 0,025 mm 0,0 UV-I 0 W/m 0,8 C 1,5 C 14,5 km/h (3 Bft) 95,45 %
26.03.2017 05:02 4,3 C 78 % 1020,0 hPa 0,0 l/m 9,1 km/h (2 Bft) O-NO 58 0 min 0,000 mm 0,0 UV-I 0 W/m 0,8 C 2,0 C 14,5 km/h (3 Bft) 100,00 %
26.03.2017 05:04 4,2 C 78 % 1020,0 hPa 0,0 l/m 7,0 km/h (2 Bft) NO 46 0 min 0,000 mm 0,0 UV-I 0 W/m 0,7 C 3,7 C 12,9 km/h (3 Bft) 100,00 %
26.03.2017 05:06 4,2 C 78 % 1020,1 hPa 0,0 l/m 8,5 km/h (2 Bft) O-NO 74 0 min 0,000 mm 0,0 UV-I 0 W/m 0,7 C 2,3 C 12,9 km/h (3 Bft) 97,87 %
26.03.2017 05:08 4,2 C 78 % 1020,1 hPa 0,0 l/m 8,4 km/h (2 Bft) O 85 0 min 0,000 mm 0,0 UV-I 0 W/m 0,7 C 2,4 C 14,5 km/h (3 Bft) 100,00 %
26.03.2017 05:10 4,3 C 77 % 1020,1 hPa 0,0 l/m 10,6 km/h (2 Bft) NO 53 0 min 0,000 mm 0,0 UV-I 0 W/m 0,6 C 0,9 C 16,1 km/h (3 Bft) 97,56 %
26.03.2017 05:12 4,3 C 77 % 1020,1 hPa 0,0 l/m 12,5 km/h (3 Bft) O 89 0 min 0,000 mm 0,0 UV-I 0 W/m 0,6 C -0,4 C 16,1 km/h (3 Bft) 100,00 %
26.03.2017 05:14 4,3 C 77 % 1020,0 hPa 0,0 l/m 10,8 km/h (2 Bft) O-NO 65 0 min 0,000 mm 0,0 UV-I 0 W/m 0,6 C 0,7 C 14,5 km/h (3 Bft) 97,73 %
26.03.2017 05:16 4,4 C 77 % 1020,0 hPa 0,0 l/m 9,9 km/h (2 Bft) O-NO 59 0 min 0,000 mm 0,0 UV-I 0 W/m 0,7 C 1,5 C 17,7 km/h (3 Bft) 97,37 %
26.03.2017 05:18 4,4 C 76 % 1020,0 hPa 0,0 l/m 12,4 km/h (3 Bft) NO 54 0 min 0,000 mm 0,0 UV-I 0 W/m 0,5 C -0,2 C 17,7 km/h (3 Bft) 98,31 %
26.03.2017 05:20 4,4 C 76 % 1019,9 hPa 0,0 l/m 13,3 km/h (3 Bft) O-NO 69 0 min 0,000 mm 0,0 UV-I 0 W/m 0,5 C -0,7 C 19,3 km/h (3 Bft) 97,87 %
26.03.2017 05:22 4,5 C 77 % 1020,0 hPa 0,0 l/m 12,0 km/h (2 Bft) O-NO 74 0 min 0,000 mm 0,0 UV-I 0 W/m 0,8 C 0,2 C 16,1 km/h (3 Bft) 100,00 %
26.03.2017 05:24 4,4 C 77 % 1020,0 hPa 0,0 l/m 11,1 km/h (2 Bft) NO 52 0 min 0,000 mm 0,0 UV-I 0 W/m 0,7 C 0,6 C 14,5 km/h (3 Bft) 98,00 %
26.03.2017 05:26 4,4 C 77 % 1019,9 hPa 0,0 l/m 9,7 km/h (2 Bft) O-NO 61 0 min 0,000 mm 0,0 UV-I 0 W/m 0,7 C 1,6 C 14,5 km/h (3 Bft) 97,73 %
26.03.2017 05:28 4,4 C 77 % 1019,9 hPa 0,0 l/m 9,0 km/h (2 Bft) O-NO 65 0 min 0,000 mm 0,0 UV-I 0 W/m 0,7 C 2,2 C 12,9 km/h (3 Bft) 98,00 %
26.03.2017 05:30 4,3 C 77 % 1020,0 hPa 0,0 l/m 9,1 km/h (2 Bft) O-NO 65 0 min 0,000 mm 0,0 UV-I 0 W/m 0,6 C 2,0 C 14,5 km/h (3 Bft) 97,56 %
26.03.2017 05:32 4,3 C 77 % 1020,0 hPa 0,0 l/m 11,1 km/h (2 Bft) O-NO 64 0 min 0,000 mm 0,0 UV-I 0 W/m 0,6 C 0,5 C 14,5 km/h (3 Bft) 98,11 %
26.03.2017 05:34 4,2 C 77 % 1020,0 hPa 0,0 l/m 10,5 km/h (2 Bft) NO 56 0 min 0,000 mm 0,0 UV-I 0 W/m 0,5 C 0,8 C 14,5 km/h (3 Bft) 98,00 %
26.03.2017 05:36 4,2 C 77 % 1020,1 hPa 0,0 l/m 11,6 km/h (2 Bft) O-NO 62 0 min 0,000 mm 0,0 UV-I 0 W/m 0,5 C 0,1 C 14,5 km/h (3 Bft) 97,37 %
26.03.2017 05:38 4,2 C 77 % 1020,0 hPa 0,0 l/m 11,4 km/h (2 Bft) NO 41 0 min 0,000 mm 0,0 UV-I 0 W/m 0,5 C 0,2 C 16,1 km/h (3 Bft) 97,62 %
26.03.2017 05:40 4,2 C 77 % 1020,1 hPa 0,0 l/m 10,1 km/h (2 Bft) NO 55 0 min 0,000 mm 0,0 UV-I 0 W/m 0,5 C 1,1 C 12,9 km/h (3 Bft) 100,00 %
26.03.2017 05:42 4,1 C 78 % 1020,1 hPa 0,0 l/m 10,7 km/h (2 Bft) O-NO 63 0 min 0,000 mm 0,0 UV-I 0 W/m 0,6 C 0,6 C 14,5 km/h (3 Bft) 96,88 %
26.03.2017 05:44 4,1 C 78 % 1020,1 hPa 0,0 l/m 11,4 km/h (2 Bft) NO 54 0 min 0,000 mm 0,0 UV-I 0 W/m 0,6 C 0,1 C 14,5 km/h (3 Bft) 97,73 %
26.03.2017 05:46 4,1 C 78 % 1020,1 hPa 0,0 l/m 9,7 km/h (2 Bft) NO 55 0 min 0,000 mm 0,0 UV-I 0 W/m 0,6 C 1,3 C 14,5 km/h (3 Bft) 97,78 %
26.03.2017 05:48 4,0 C 78 % 1020,1 hPa 0,0 l/m 8,4 km/h (2 Bft) O-NO 63 0 min 0,000 mm 0,0 UV-I 0 W/m 0,5 C 2,2 C 12,9 km/h (3 Bft) 96,00 %
26.03.2017 05:50 3,9 C 79 % 1020,1 hPa 0,0 l/m 10,0 km/h (2 Bft) O-NO 68 0 min 0,000 mm 0,0 UV-I 0 W/m 0,6 C 0,9 C 14,5 km/h (3 Bft) 95,83 %
26.03.2017 05:52 3,9 C 79 % 1020,1 hPa 0,0 l/m 9,8 km/h (2 Bft) O-NO 74 0 min 0,000 mm 0,0 UV-I 0 W/m 0,6 C 1,0 C 14,5 km/h (3 Bft) 95,12 %
26.03.2017 05:54 3,8 C 79 % 1020,1 hPa 0,0 l/m 8,9 km/h (2 Bft) NO 45 0 min 0,000 mm 0,0 UV-I 0 W/m 0,5 C 1,6 C 14,5 km/h (3 Bft) 100,00 %
26.03.2017 05:56 3,8 C 79 % 1020,0 hPa 0,0 l/m 10,0 km/h (2 Bft) O-NO 57 0 min 0,000 mm 0,0 UV-I 0 W/m 0,5 C 0,7 C 14,5 km/h (3 Bft) 98,11 %
26.03.2017 05:58 3,8 C 80 % 1020,1 hPa 0,0 l/m 12,1 km/h (2 Bft) O-NO 72 0 min 0,000 mm 0,0 UV-I 0 W/m 0,7 C -0,7 C 16,1 km/h (3 Bft) 97,56 %
26.03.2017 06:00 3,8 C 80 % 1020,1 hPa 0,0 l/m 11,1 km/h (2 Bft) O-NO 58 0 min 0,026 mm 0,0 UV-I 0 W/m 0,7 C -0,0 C 16,1 km/h (3 Bft) 95,45 %
26.03.2017 06:02 3,8 C 80 % 1020,0 hPa 0,0 l/m 10,3 km/h (2 Bft) O-NO 62 0 min 0,000 mm 0,0 UV-I 0 W/m 0,7 C 0,5 C 14,5 km/h (3 Bft) 96,23 %
26.03.2017 06:04 3,7 C 80 % 1020,0 hPa 0,0 l/m 10,1 km/h (2 Bft) O 87 0 min 0,000 mm 0,0 UV-I 0 W/m 0,6 C 0,6 C 12,9 km/h (3 Bft) 97,37 %
26.03.2017 06:06 3,7 C 80 % 1020,0 hPa 0,0 l/m 9,6 km/h (2 Bft) O-NO 57 0 min 0,000 mm 0,0 UV-I 0 W/m 0,6 C 0,9 C 12,9 km/h (3 Bft) 96,00 %
26.03.2017 06:08 3,7 C 80 % 1020,1 hPa 0,0 l/m 9,5 km/h (2 Bft) O-NO 61 0 min 0,000 mm 0,0 UV-I 0 W/m 0,6 C 1,0 C 14,5 km/h (3 Bft) 97,56 %
26.03.2017 06:10 3,7 C 80 % 1020,1 hPa 0,0 l/m 8,7 km/h (2 Bft) O-NO 63 0 min 0,000 mm 0,0 UV-I 0 W/m 0,6 C 1,6 C 12,9 km/h (3 Bft) 94,12 %
26.03.2017 06:12 3,7 C 80 % 1020,1 hPa 0,0 l/m 8,0 km/h (2 Bft) O-NO 70 0 min 0,000 mm 0,0 UV-I 0 W/m 0,6 C 2,2 C 12,9 km/h (3 Bft) 96,23 %
26.03.2017 06:14 3,6 C 81 % 1020,0 hPa 0,0 l/m 8,4 km/h (2 Bft) O-NO 67 0 min 0,000 mm 0,0 UV-I 0 W/m 0,7 C 1,8 C 12,9 km/h (3 Bft) 94,74 %
26.03.2017 06:16 3,6 C 81 % 1020,0 hPa 0,0 l/m 8,8 km/h (2 Bft) O 80 0 min 0,000 mm 0,0 UV-I 0 W/m 0,7 C 1,5 C 12,9 km/h (3 Bft) 91,07 %
26.03.2017 06:18 3,6 C 81 % 1020,0 hPa 0,0 l/m 10,1 km/h (2 Bft) NO 54 0 min 0,000 mm 0,0 UV-I 0 W/m 0,7 C 0,5 C 14,5 km/h (3 Bft) 95,74 %
26.03.2017 06:20 3,5 C 81 % 1020,0 hPa 0,0 l/m 11,0 km/h (2 Bft) O-NO 67 0 min 0,000 mm 0,0 UV-I 0 W/m 0,6 C -0,3 C 16,1 km/h (3 Bft) 92,86 %
26.03.2017 06:22 3,5 C 81 % 1020,1 hPa 0,0 l/m 8,8 km/h (2 Bft) O-NO 72 0 min 0,000 mm 0,0 UV-I 0 W/m 0,6 C 1,4 C 12,9 km/h (3 Bft) 96,15 %
26.03.2017 06:24 3,4 C 81 % 1020,1 hPa 0,0 l/m 9,6 km/h (2 Bft) O-NO 67 0 min 0,000 mm 0,0 UV-I 0 W/m 0,5 C 0,6 C 14,5 km/h (3 Bft) 92,86 %
26.03.2017 06:26 3,4 C 81 % 1020,1 hPa 0,0 l/m 10,4 km/h (2 Bft) NO 46 0 min 0,000 mm 0,0 UV-I 0 W/m 0,5 C 0,0 C 16,1 km/h (3 Bft) 95,74 %
26.03.2017 06:28 3,4 C 82 % 1020,1 hPa 0,0 l/m 10,3 km/h (2 Bft) O-NO 69 0 min 0,000 mm 0,0 UV-I 0 W/m 0,6 C 0,1 C 12,9 km/h (3 Bft) 94,34 %
26.03.2017 06:30 3,4 C 82 % 1020,0 hPa 0,0 l/m 10,3 km/h (2 Bft) O-NO 61 0 min 0,000 mm 0,0 UV-I 0 W/m 0,6 C 0,1 C 14,5 km/h (3 Bft) 92,11 %
26.03.2017 06:32 3,3 C 82 % 1020,1 hPa 0,0 l/m 9,1 km/h (2 Bft) O-NO 60 0 min 0,000 mm 0,0 UV-I 0 W/m 0,5 C 0,9 C 12,9 km/h (3 Bft) 93,62 %
26.03.2017 06:34 3,3 C 82 % 1020,0 hPa 0,0 l/m 7,4 km/h (2 Bft) O-NO 60 0 min 0,000 mm 0,0 UV-I 0 W/m 0,5 C 2,4 C 9,7 km/h (2 Bft) 92,00 %
26.03.2017 06:36 3,3 C 82 % 1020,1 hPa 0,0 l/m 8,7 km/h (2 Bft) O-NO 66 0 min 0,000 mm 0,0 UV-I 0 W/m 0,5 C 1,2 C 12,9 km/h (3 Bft) 98,11 %
26.03.2017 06:38 3,3 C 82 % 1020,1 hPa 0,0 l/m 8,1 km/h (2 Bft) O-NO 73 0 min 0,000 mm 0,0 UV-I 0 W/m 0,5 C 1,7 C 12,9 km/h (3 Bft) 94,74 %
26.03.2017 06:40 3,2 C 82 % 1020,1 hPa 0,0 l/m 8,6 km/h (2 Bft) NO 41 0 min 0,000 mm 0,0 UV-I 4 W/m 0,4 C 1,2 C 14,5 km/h (3 Bft) 92,00 %
26.03.2017 06:42 3,2 C 82 % 1020,1 hPa 0,0 l/m 10,9 km/h (2 Bft) NO 56 0 min 0,000 mm 0,0 UV-I 5 W/m 0,4 C -0,6 C 16,1 km/h (3 Bft) 97,56 %
26.03.2017 06:44 3,2 C 82 % 1020,1 hPa 0,0 l/m 10,2 km/h (2 Bft) NO 53 0 min 0,000 mm 0,0 UV-I 5 W/m 0,4 C -0,1 C 14,5 km/h (3 Bft) 96,43 %
26.03.2017 06:46 3,2 C 83 % 1020,0 hPa 0,0 l/m 8,0 km/h (2 Bft) O-NO 70 0 min 0,000 mm 0,0 UV-I 7 W/m 0,6 C 1,7 C 14,5 km/h (3 Bft) 97,56 %
26.03.2017 06:48 3,1 C 83 % 1020,1 hPa 0,0 l/m 9,8 km/h (2 Bft) O-NO 60 0 min 0,000 mm 0,0 UV-I 6 W/m 0,5 C 0,1 C 14,5 km/h (3 Bft) 98,04 %
26.03.2017 06:50 3,1 C 83 % 1020,2 hPa 0,0 l/m 10,2 km/h (2 Bft) NO 55 0 min 0,000 mm 0,0 UV-I 6 W/m 0,5 C -0,2 C 16,1 km/h (3 Bft) 95,12 %
26.03.2017 06:52 3,1 C 83 % 1020,2 hPa 0,0 l/m 9,5 km/h (2 Bft) NO 46 0 min 0,000 mm 0,0 UV-I 7 W/m 0,5 C 0,4 C 12,9 km/h (3 Bft) 97,87 %
26.03.2017 06:54 3,0 C 83 % 1020,3 hPa 0,0 l/m 9,7 km/h (2 Bft) O-NO 65 0 min 0,000 mm 0,0 UV-I 8 W/m 0,4 C 0,1 C 14,5 km/h (3 Bft) 96,23 %
26.03.2017 06:56 3,0 C 83 % 1020,3 hPa 0,0 l/m 8,1 km/h (2 Bft) NO 51 0 min 0,000 mm 0,0 UV-I 10 W/m 0,4 C 1,4 C 9,7 km/h (2 Bft) 95,12 %
26.03.2017 06:58 2,9 C 84 % 1020,3 hPa 0,0 l/m 8,7 km/h (2 Bft) O-NO 71 0 min 0,000 mm 0,0 UV-I 11 W/m 0,5 C 0,8 C 12,9 km/h (3 Bft) 96,43 %
26.03.2017 07:00 2,9 C 84 % 1020,3 hPa 0,0 l/m 10,1 km/h (2 Bft) O-NO 74 0 min 0,025 mm 0,0 UV-I 11 W/m 0,5 C -0,3 C 14,5 km/h (3 Bft) 97,56 %
26.03.2017 07:02 2,8 C 84 % 1020,3 hPa 0,0 l/m 9,0 km/h (2 Bft) O-NO 65 0 min 0,000 mm 0,0 UV-I 11 W/m 0,4 C 0,4 C 14,5 km/h (3 Bft) 94,34 %
26.03.2017 07:04 2,8 C 84 % 1020,3 hPa 0,0 l/m 9,1 km/h (2 Bft) O-NO 64 0 min 0,000 mm 0,0 UV-I 12 W/m 0,4 C 0,4 C 14,5 km/h (3 Bft) 95,56 %
26.03.2017 07:06 2,8 C 84 % 1020,3 hPa 0,0 l/m 9,3 km/h (2 Bft) O-NO 61 2 min 0,000 mm 0,0 UV-I 12 W/m 0,4 C 0,2 C 12,9 km/h (3 Bft) 97,87 %
26.03.2017 07:08 2,8 C 84 % 1020,3 hPa 0,0 l/m 9,1 km/h (2 Bft) O-NO 61 0 min 0,000 mm 0,0 UV-I 14 W/m 0,4 C 0,4 C 12,9 km/h (3 Bft) 95,12 %
26.03.2017 07:10 2,8 C 84 % 1020,3 hPa 0,0 l/m 10,9 km/h (2 Bft) O-NO 60 0 min 0,000 mm 0,0 UV-I 15 W/m 0,4 C -1,0 C 14,5 km/h (3 Bft) 97,73 %
26.03.2017 07:12 2,8 C 84 % 1020,4 hPa 0,0 l/m 9,6 km/h (2 Bft) O-NO 57 0 min 0,000 mm 0,0 UV-I 19 W/m 0,4 C -0,0 C 14,5 km/h (3 Bft) 93,18 %
26.03.2017 07:14 2,8 C 84 % 1020,4 hPa 0,0 l/m 8,9 km/h (2 Bft) O-NO 59 2 min 0,000 mm 0,0 UV-I 31 W/m 0,4 C 0,5 C 12,9 km/h (3 Bft) 85,37 %
26.03.2017 07:16 2,8 C 84 % 1020,4 hPa 0,0 l/m 7,4 km/h (2 Bft) NO 49 2 min 0,000 mm 0,0 UV-I 38 W/m 0,4 C 1,8 C 12,9 km/h (3 Bft) 94,64 %
26.03.2017 07:18 2,8 C 85 % 1020,4 hPa 0,0 l/m 9,3 km/h (2 Bft) NO 47 2 min 0,000 mm 0,0 UV-I 41 W/m 0,5 C 0,2 C 14,5 km/h (3 Bft) 95,74 %
26.03.2017 07:20 2,8 C 85 % 1020,4 hPa 0,0 l/m 8,8 km/h (2 Bft) NO 56 2 min 0,000 mm 0,0 UV-I 44 W/m 0,5 C 0,6 C 14,5 km/h (3 Bft) 89,36 %
26.03.2017 07:22 2,8 C 85 % 1020,5 hPa 0,0 l/m 9,3 km/h (2 Bft) O-NO 62 2 min 0,000 mm 0,0 UV-I 47 W/m 0,5 C 0,2 C 14,5 km/h (3 Bft) 92,86 %
26.03.2017 07:24 2,8 C 85 % 1020,5 hPa 0,0 l/m 10,3 km/h (2 Bft) O-NO 65 0 min 0,000 mm 0,0 UV-I 38 W/m 0,5 C -0,6 C 16,1 km/h (3 Bft) 95,12 %
26.03.2017 07:26 2,8 C 85 % 1020,5 hPa 0,0 l/m 10,2 km/h (2 Bft) O-NO 63 2 min 0,000 mm 0,0 UV-I 52 W/m 0,5 C -0,5 C 14,5 km/h (3 Bft) 94,34 %
26.03.2017 07:28 2,8 C 85 % 1020,5 hPa 0,0 l/m 8,9 km/h (2 Bft) O-NO 65 2 min 0,000 mm 0,0 UV-I 59 W/m 0,5 C 0,5 C 11,3 km/h (2 Bft) 100,00 %
26.03.2017 07:30 2,9 C 84 % 1020,5 hPa 0,0 l/m 8,4 km/h (2 Bft) O 81 2 min 0,000 mm 0,0 UV-I 67 W/m 0,5 C 1,0 C 14,5 km/h (3 Bft) 97,37 %
26.03.2017 07:32 2,9 C 84 % 1020,5 hPa 0,0 l/m 10,3 km/h (2 Bft) O-NO 75 2 min 0,000 mm 0,0 UV-I 66 W/m 0,5 C -0,5 C 14,5 km/h (3 Bft) 92,00 %
26.03.2017 07:34 2,9 C 84 % 1020,5 hPa 0,0 l/m 8,8 km/h (2 Bft) O-NO 68 2 min 0,000 mm 0,0 UV-I 74 W/m 0,5 C 0,7 C 14,5 km/h (3 Bft) 93,62 %
26.03.2017 07:36 2,9 C 85 % 1020,5 hPa 0,0 l/m 8,3 km/h (2 Bft) O-NO 72 2 min 0,000 mm 0,0 UV-I 80 W/m 0,6 C 1,1 C 12,9 km/h (3 Bft) 93,18 %
26.03.2017 07:38 2,9 C 85 % 1020,5 hPa 0,0 l/m 10,2 km/h (2 Bft) NO 41 2 min 0,000 mm 0,0 UV-I 88 W/m 0,6 C -0,4 C 14,5 km/h (3 Bft) 97,92 %
26.03.2017 07:40 2,9 C 85 % 1020,6 hPa 0,0 l/m 9,5 km/h (2 Bft) NO 44 2 min 0,000 mm 0,0 UV-I 94 W/m 0,6 C 0,1 C 12,9 km/h (3 Bft) 95,45 %
26.03.2017 07:42 3,1 C 84 % 1020,5 hPa 0,0 l/m 11,7 km/h (2 Bft) O 79 2 min 0,000 mm 0,0 UV-I 96 W/m 0,7 C -1,2 C 17,7 km/h (3 Bft) 98,28 %
26.03.2017 07:44 3,1 C 84 % 1020,6 hPa 0,0 l/m 12,4 km/h (3 Bft) O-NO 59 2 min 0,000 mm 0,0 UV-I 91 W/m 0,7 C -1,7 C 16,1 km/h (3 Bft) 88,10 %
26.03.2017 07:46 3,2 C 84 % 1020,6 hPa 0,0 l/m 12,0 km/h (2 Bft) NO 46 2 min 0,000 mm 0,0 UV-I 111 W/m 0,8 C -1,3 C 17,7 km/h (3 Bft) 92,68 %
26.03.2017 07:48 3,3 C 84 % 1020,6 hPa 0,0 l/m 12,5 km/h (3 Bft) NO 44 2 min 0,000 mm 0,0 UV-I 115 W/m 0,9 C -1,5 C 16,1 km/h (3 Bft) 94,34 %
26.03.2017 07:50 3,4 C 83 % 1020,6 hPa 0,0 l/m 11,4 km/h (2 Bft) NO 47 2 min 0,000 mm 0,0 UV-I 124 W/m 0,8 C -0,7 C 14,5 km/h (3 Bft) 98,11 %
26.03.2017 07:52 3,4 C 83 % 1020,6 hPa 0,0 l/m 11,4 km/h (2 Bft) O-NO 59 2 min 0,000 mm 0,0 UV-I 131 W/m 0,8 C -0,7 C 16,1 km/h (3 Bft) 97,73 %
26.03.2017 07:54 3,5 C 83 % 1020,6 hPa 0,0 l/m 8,9 km/h (2 Bft) O-NO 78 2 min 0,000 mm 0,0 UV-I 139 W/m 0,9 C 1,3 C 12,9 km/h (3 Bft) 97,73 %
26.03.2017 07:56 3,6 C 82 % 1020,6 hPa 0,0 l/m 10,3 km/h (2 Bft) O-NO 61 2 min 0,000 mm 0,0 UV-I 147 W/m 0,8 C 0,3 C 14,5 km/h (3 Bft) 94,34 %
26.03.2017 07:58 3,7 C 82 % 1020,7 hPa 0,0 l/m 9,1 km/h (2 Bft) O-NO 63 2 min 0,000 mm 0,0 UV-I 133 W/m 0,9 C 1,3 C 12,9 km/h (3 Bft) 93,18 %
26.03.2017 08:00 3,8 C 82 % 1020,6 hPa 0,0 l/m 9,4 km/h (2 Bft) NO 55 2 min 0,051 mm 0,0 UV-I 161 W/m 1,0 C 1,2 C 12,9 km/h (3 Bft) 97,73 %
26.03.2017 08:02 3,9 C 81 % 1020,6 hPa 0,0 l/m 12,2 km/h (2 Bft) O-NO 73 2 min 0,000 mm 0,0 UV-I 169 W/m 0,9 C -0,6 C 16,1 km/h (3 Bft) 94,00 %
26.03.2017 08:04 4,0 C 80 % 1020,6 hPa 0,0 l/m 12,1 km/h (2 Bft) O-NO 58 2 min 0,000 mm 0,0 UV-I 176 W/m 0,9 C -0,5 C 17,7 km/h (3 Bft) 97,73 %
26.03.2017 08:06 4,1 C 80 % 1020,6 hPa 0,0 l/m 12,0 km/h (2 Bft) O-NO 57 2 min 0,000 mm 0,0 UV-I 177 W/m 1,0 C -0,3 C 17,7 km/h (3 Bft) 97,87 %
26.03.2017 08:08 4,2 C 79 % 1020,7 hPa 0,0 l/m 14,8 km/h (3 Bft) O-NO 65 2 min 0,000 mm 0,0 UV-I 188 W/m 0,9 C -1,8 C 19,3 km/h (3 Bft) 95,12 %
26.03.2017 08:10 4,2 C 79 % 1020,7 hPa 0,0 l/m 14,9 km/h (3 Bft) O-NO 57 2 min 0,000 mm 0,0 UV-I 195 W/m 0,9 C -1,8 C 19,3 km/h (3 Bft) 96,23 %
26.03.2017 08:12 4,2 C 79 % 1020,7 hPa 0,0 l/m 14,3 km/h (3 Bft) O-NO 73 2 min 0,000 mm 0,0 UV-I 200 W/m 0,9 C -1,5 C 20,9 km/h (4 Bft) 96,30 %
26.03.2017 08:14 4,3 C 79 % 1020,8 hPa 0,0 l/m 13,9 km/h (3 Bft) O-NO 64 2 min 0,000 mm 0,0 UV-I 205 W/m 1,0 C -1,2 C 19,3 km/h (3 Bft) 89,06 %
26.03.2017 08:16 4,3 C 78 % 1020,8 hPa 0,0 l/m 14,9 km/h (3 Bft) NO 46 2 min 0,000 mm 0,0 UV-I 207 W/m 0,8 C -1,7 C 19,3 km/h (3 Bft) 97,73 %
26.03.2017 08:18 4,4 C 78 % 1020,9 hPa 0,0 l/m 13,3 km/h (3 Bft) NO 55 2 min 0,000 mm 0,0 UV-I 208 W/m 0,9 C -0,7 C 17,7 km/h (3 Bft) 88,68 %
26.03.2017 08:20 4,4 C 79 % 1020,9 hPa 0,0 l/m 11,4 km/h (2 Bft) O-NO 67 2 min 0,000 mm 0,0 UV-I 211 W/m 1,1 C 0,4 C 16,1 km/h (3 Bft) 92,31 %
26.03.2017 08:22 4,6 C 78 % 1020,9 hPa 0,0 l/m 12,1 km/h (2 Bft) O-NO 58 2 min 0,000 mm 0,0 UV-I 214 W/m 1,1 C 0,2 C 19,3 km/h (3 Bft) 96,36 %
26.03.2017 08:24 4,6 C 78 % 1020,9 hPa 0,0 l/m 14,6 km/h (3 Bft) O-NO 66 2 min 0,000 mm 0,0 UV-I 216 W/m 1,1 C -1,2 C 20,9 km/h (4 Bft) 92,86 %
26.03.2017 08:26 4,7 C 79 % 1020,9 hPa 0,0 l/m 14,2 km/h (3 Bft) NO 54 2 min 0,000 mm 0,0 UV-I 212 W/m 1,4 C -0,9 C 22,5 km/h (4 Bft) 90,57 %
26.03.2017 08:28 4,7 C 78 % 1020,9 hPa 0,0 l/m 16,9 km/h (3 Bft) NO 55 2 min 0,000 mm 0,0 UV-I 216 W/m 1,2 C -2,2 C 24,1 km/h (4 Bft) 95,12 %
26.03.2017 08:30 4,8 C 78 % 1021,0 hPa 0,0 l/m 12,7 km/h (3 Bft) O-NO 76 2 min 0,000 mm 0,0 UV-I 229 W/m 1,3 C 0,1 C 20,9 km/h (4 Bft) 94,00 %
26.03.2017 08:32 4,9 C 78 % 1021,0 hPa 0,0 l/m 10,5 km/h (2 Bft) O-NO 64 2 min 0,000 mm 0,0 UV-I 236 W/m 1,4 C 1,6 C 14,5 km/h (3 Bft) 90,20 %
26.03.2017 08:34 4,9 C 77 % 1021,0 hPa 0,0 l/m 12,8 km/h (3 Bft) O-NO 66 2 min 0,000 mm 0,0 UV-I 229 W/m 1,2 C 0,2 C 19,3 km/h (3 Bft) 97,56 %
26.03.2017 08:36 5,1 C 76 % 1021,0 hPa 0,0 l/m 16,1 km/h (3 Bft) O-NO 71 2 min 0,000 mm 0,0 UV-I 209 W/m 1,2 C -1,3 C 22,5 km/h (4 Bft) 95,45 %
26.03.2017 08:38 5,2 C 76 % 1021,0 hPa 0,0 l/m 18,0 km/h (3 Bft) O-NO 75 2 min 0,000 mm 0,0 UV-I 253 W/m 1,3 C -2,1 C 22,5 km/h (4 Bft) 94,64 %
26.03.2017 08:40 5,2 C 76 % 1021,0 hPa 0,0 l/m 17,1 km/h (3 Bft) O-NO 61 2 min 0,000 mm 0,0 UV-I 179 W/m 1,3 C -1,7 C 22,5 km/h (4 Bft) 89,47 %
26.03.2017 08:42 5,2 C 76 % 1021,1 hPa 0,0 l/m 13,7 km/h (3 Bft) NO 43 0 min 0,000 mm 0,0 UV-I 108 W/m 1,3 C 0,0 C 20,9 km/h (4 Bft) 95,74 %
26.03.2017 08:44 5,1 C 76 % 1021,0 hPa 0,0 l/m 14,3 km/h (3 Bft) NO 44 0 min 0,000 mm 0,0 UV-I 114 W/m 1,2 C -0,4 C 24,1 km/h (4 Bft) 96,23 %
26.03.2017 08:46 5,1 C 75 % 1021,0 hPa 0,0 l/m 17,8 km/h (3 Bft) NO 42 0 min 0,000 mm 0,0 UV-I 120 W/m 1,0 C -2,1 C 25,7 km/h (4 Bft) 100,00 %
26.03.2017 08:48 5,1 C 76 % 1021,0 hPa 0,0 l/m 16,6 km/h (3 Bft) O-NO 57 0 min 0,000 mm 0,0 UV-I 100 W/m 1,2 C -1,6 C 22,5 km/h (4 Bft) 100,00 %
26.03.2017 08:50 5,0 C 76 % 1021,0 hPa 0,0 l/m 17,3 km/h (3 Bft) NO 43 0 min 0,000 mm 0,0 UV-I 102 W/m 1,1 C -2,0 C 22,5 km/h (4 Bft) 96,23 %
26.03.2017 08:52 4,9 C 77 % 1021,1 hPa 0,0 l/m 16,3 km/h (3 Bft) NO 52 0 min 0,000 mm 0,0 UV-I 105 W/m 1,2 C -1,7 C 22,5 km/h (4 Bft) 97,37 %
26.03.2017 08:54 4,9 C 77 % 1021,1 hPa 0,0 l/m 19,3 km/h (3 Bft) O-NO 71 0 min 0,000 mm 0,0 UV-I 116 W/m 1,2 C -3,0 C 24,1 km/h (4 Bft) 96,43 %
26.03.2017 08:56 4,8 C 77 % 1021,1 hPa 0,0 l/m 16,1 km/h (3 Bft) O-NO 58 0 min 0,000 mm 0,0 UV-I 131 W/m 1,1 C -1,7 C 20,9 km/h (4 Bft) 97,56 %
26.03.2017 08:58 4,8 C 77 % 1021,1 hPa 0,0 l/m 18,1 km/h (3 Bft) NO 51 0 min 0,000 mm 0,0 UV-I 142 W/m 1,1 C -2,6 C 27,4 km/h (4 Bft) 98,11 %
26.03.2017 09:00 4,9 C 77 % 1021,2 hPa 0,0 l/m 16,0 km/h (3 Bft) NO 49 0 min 0,101 mm 0,0 UV-I 152 W/m 1,2 C -1,5 C 20,9 km/h (4 Bft) 95,74 %
26.03.2017 09:02 4,9 C 77 % 1021,2 hPa 0,0 l/m 18,6 km/h (3 Bft) O-NO 65 0 min 0,000 mm 0,0 UV-I 164 W/m 1,2 C -2,7 C 25,7 km/h (4 Bft) 97,87 %
26.03.2017 09:04 4,9 C 77 % 1021,2 hPa 0,0 l/m 16,2 km/h (3 Bft) NO 47 0 min 0,000 mm 0,0 UV-I 165 W/m 1,2 C -1,6 C 20,9 km/h (4 Bft) 94,00 %
26.03.2017 09:06 5,0 C 76 % 1021,3 hPa 0,0 l/m 20,0 km/h (4 Bft) O-NO 57 0 min 0,000 mm 0,0 UV-I 162 W/m 1,1 C -3,2 C 25,7 km/h (4 Bft) 97,44 %
26.03.2017 09:08 5,1 C 76 % 1021,3 hPa 0,0 l/m 18,1 km/h (3 Bft) O-NO 69 0 min 0,000 mm 0,0 UV-I 158 W/m 1,2 C -2,3 C 27,4 km/h (4 Bft) 100,00 %
26.03.2017 09:10 5,1 C 76 % 1021,3 hPa 0,0 l/m 17,5 km/h (3 Bft) O-NO 61 0 min 0,000 mm 0,0 UV-I 150 W/m 1,2 C -2,0 C 25,7 km/h (4 Bft) 97,73 %
26.03.2017 09:12 5,1 C 76 % 1021,3 hPa 0,0 l/m 18,3 km/h (3 Bft) O-SO 107 0 min 0,000 mm 0,0 UV-I 145 W/m 1,2 C -2,3 C 27,4 km/h (4 Bft) 98,21 %
26.03.2017 09:14 5,2 C 76 % 1021,3 hPa 0,0 l/m 19,4 km/h (3 Bft) O-NO 75 0 min 0,000 mm 0,2 UV-I 150 W/m 1,3 C -2,7 C 25,7 km/h (4 Bft) 100,00 %
26.03.2017 09:16 5,2 C 75 % 1021,4 hPa 0,0 l/m 20,3 km/h (4 Bft) O-NO 57 0 min 0,000 mm 0,5 UV-I 162 W/m 1,1 C -3,0 C 27,4 km/h (4 Bft) 95,12 %
26.03.2017 09:18 5,2 C 76 % 1021,4 hPa 0,0 l/m 18,2 km/h (3 Bft) O-NO 72 0 min 0,000 mm 0,5 UV-I 189 W/m 1,3 C -2,2 C 22,5 km/h (4 Bft) 96,00 %
26.03.2017 09:20 5,2 C 76 % 1021,4 hPa 0,0 l/m 18,2 km/h (3 Bft) NO 49 0 min 0,000 mm 0,5 UV-I 192 W/m 1,3 C -2,2 C 25,7 km/h (4 Bft) 97,14 %
26.03.2017 09:22 5,3 C 76 % 1021,4 hPa 0,0 l/m 18,2 km/h (3 Bft) O-NO 74 0 min 0,000 mm 0,6 UV-I 202 W/m 1,4 C -2,0 C 27,4 km/h (4 Bft) 93,18 %
26.03.2017 09:24 5,4 C 75 % 1021,3 hPa 0,0 l/m 19,8 km/h (3 Bft) O-NO 69 2 min 0,000 mm 0,6 UV-I 250 W/m 1,3 C -2,6 C 27,4 km/h (4 Bft) 93,22 %
26.03.2017 09:26 5,4 C 74 % 1021,4 hPa 0,0 l/m 23,2 km/h (4 Bft) O 94 2 min 0,000 mm 0,6 UV-I 237 W/m 1,1 C -3,8 C 32,2 km/h (5 Bft) 100,00 %
26.03.2017 09:28 5,5 C 74 % 1021,4 hPa 0,0 l/m 18,6 km/h (3 Bft) O 82 0 min 0,000 mm 0,6 UV-I 220 W/m 1,2 C -2,0 C 27,4 km/h (4 Bft) 98,44 %
26.03.2017 09:30 5,5 C 75 % 1021,3 hPa 0,0 l/m 22,7 km/h (4 Bft) O 87 0 min 0,000 mm 0,6 UV-I 191 W/m 1,4 C -3,5 C 33,8 km/h (5 Bft) 92,45 %
26.03.2017 09:32 5,4 C 74 % 1021,3 hPa 0,0 l/m 26,4 km/h (4 Bft) O-NO 66 0 min 0,000 mm 0,6 UV-I 192 W/m 1,1 C -4,8 C 37,0 km/h (5 Bft) 93,62 %
26.03.2017 09:34 5,4 C 74 % 1021,3 hPa 0,0 l/m 25,2 km/h (4 Bft) O-NO 71 0 min 0,000 mm 0,6 UV-I 204 W/m 1,1 C -4,5 C 35,4 km/h (5 Bft) 95,74 %
26.03.2017 09:36 5,4 C 74 % 1021,3 hPa 0,0 l/m 25,7 km/h (4 Bft) O-NO 61 2 min 0,000 mm 0,7 UV-I 239 W/m 1,1 C -4,6 C 33,8 km/h (5 Bft) 93,18 %
26.03.2017 09:38 5,5 C 74 % 1021,2 hPa 0,0 l/m 25,4 km/h (4 Bft) O 81 2 min 0,000 mm 0,8 UV-I 351 W/m 1,2 C -4,4 C 35,4 km/h (5 Bft) 97,62 %
26.03.2017 09:40 5,6 C 74 % 1021,2 hPa 0,0 l/m 18,3 km/h (3 Bft) O 90 2 min 0,000 mm 0,9 UV-I 413 W/m 1,3 C -1,7 C 29,0 km/h (5 Bft) 95,45 %
26.03.2017 09:42 5,9 C 74 % 1021,2 hPa 0,0 l/m 19,2 km/h (3 Bft) O 88 2 min 0,000 mm 0,9 UV-I 530 W/m 1,6 C -1,7 C 30,6 km/h (5 Bft) 92,45 %
26.03.2017 09:44 6,1 C 73 % 1021,2 hPa 0,0 l/m 20,6 km/h (4 Bft) O-NO 73 2 min 0,000 mm 0,9 UV-I 523 W/m 1,6 C -2,0 C 27,4 km/h (4 Bft) 96,15 %
26.03.2017 09:46 6,2 C 73 % 1021,2 hPa 0,0 l/m 21,0 km/h (4 Bft) O-NO 63 2 min 0,000 mm 0,9 UV-I 511 W/m 1,7 C -2,0 C 29,0 km/h (5 Bft) 94,44 %
26.03.2017 09:48 6,2 C 73 % 1021,2 hPa 0,0 l/m 18,9 km/h (3 Bft) O 83 2 min 0,000 mm 0,8 UV-I 309 W/m 1,7 C -1,2 C 27,4 km/h (4 Bft) 97,87 %
26.03.2017 09:50 6,2 C 72 % 1021,3 hPa 0,0 l/m 20,5 km/h (4 Bft) O-NO 59 2 min 0,000 mm 0,9 UV-I 351 W/m 1,5 C -1,8 C 30,6 km/h (5 Bft) 92,86 %
26.03.2017 09:52 6,2 C 72 % 1021,2 hPa 0,0 l/m 22,1 km/h (4 Bft) O 81 2 min 0,000 mm 0,9 UV-I 404 W/m 1,5 C -2,4 C 30,6 km/h (5 Bft) 97,14 %
26.03.2017 09:54 6,2 C 72 % 1021,3 hPa 0,0 l/m 22,4 km/h (4 Bft) O 84 2 min 0,000 mm 0,9 UV-I 452 W/m 1,5 C -2,5 C 32,2 km/h (5 Bft) 94,64 %
26.03.2017 09:56 6,3 C 72 % 1021,3 hPa 0,0 l/m 24,6 km/h (4 Bft) O-NO 59 2 min 0,000 mm 1,0 UV-I 550 W/m 1,6 C -3,1 C 35,4 km/h (5 Bft) 92,31 %
26.03.2017 09:58 6,3 C 72 % 1021,3 hPa 0,0 l/m 24,5 km/h (4 Bft) O-NO 67 2 min 0,000 mm 1,0 UV-I 453 W/m 1,6 C -3,0 C 32,2 km/h (5 Bft) 95,59 %
26.03.2017 10:00 6,3 C 72 % 1021,4 hPa 0,0 l/m 23,5 km/h (4 Bft) O-NO 69 2 min 0,178 mm 1,0 UV-I 394 W/m 1,6 C -2,7 C 33,8 km/h (5 Bft) 95,74 %
26.03.2017 10:02 6,4 C 72 % 1021,4 hPa 0,0 l/m 25,0 km/h (4 Bft) O-NO 75 2 min 0,000 mm 1,1 UV-I 460 W/m 1,7 C -3,0 C 30,6 km/h (5 Bft) 93,62 %
26.03.2017 10:04 6,4 C 72 % 1021,4 hPa 0,0 l/m 25,2 km/h (4 Bft) O-NO 60 2 min 0,000 mm 1,1 UV-I 496 W/m 1,7 C -3,1 C 32,2 km/h (5 Bft) 95,12 %
26.03.2017 10:06 6,4 C 71 % 1021,5 hPa 0,0 l/m 23,6 km/h (4 Bft) NO 55 2 min 0,000 mm 1,1 UV-I 512 W/m 1,5 C -2,6 C 32,2 km/h (5 Bft) 96,00 %
26.03.2017 10:08 6,5 C 72 % 1021,5 hPa 0,0 l/m 23,8 km/h (4 Bft) O-NO 69 2 min 0,000 mm 1,1 UV-I 507 W/m 1,8 C -2,5 C 33,8 km/h (5 Bft) 95,12 %
26.03.2017 10:10 6,6 C 72 % 1021,5 hPa 0,0 l/m 25,5 km/h (4 Bft) O-NO 63 2 min 0,000 mm 1,2 UV-I 533 W/m 1,9 C -2,9 C 33,8 km/h (5 Bft) 90,57 %
26.03.2017 10:12 6,7 C 71 % 1021,5 hPa 0,0 l/m 23,1 km/h (4 Bft) NO 45 2 min 0,000 mm 1,2 UV-I 534 W/m 1,8 C -2,1 C 32,2 km/h (5 Bft) 87,80 %
26.03.2017 10:14 6,7 C 72 % 1021,5 hPa 0,0 l/m 21,1 km/h (4 Bft) NO 44 2 min 0,000 mm 1,2 UV-I 528 W/m 2,0 C -1,4 C 25,7 km/h (4 Bft) 97,44 %
26.03.2017 10:16 6,7 C 71 % 1021,5 hPa 0,0 l/m 24,1 km/h (4 Bft) O-NO 76 2 min 0,000 mm 1,2 UV-I 527 W/m 1,8 C -2,4 C 29,0 km/h (5 Bft) 98,21 %
26.03.2017 10:18 6,7 C 70 % 1021,5 hPa 0,0 l/m 23,7 km/h (4 Bft) NO 49 2 min 0,000 mm 1,2 UV-I 524 W/m 1,6 C -2,2 C 30,6 km/h (5 Bft) 89,80 %
26.03.2017 10:20 6,7 C 71 % 1021,6 hPa 0,0 l/m 23,1 km/h (4 Bft) NO 40 2 min 0,000 mm 1,3 UV-I 523 W/m 1,8 C -2,1 C 29,0 km/h (5 Bft) 89,74 %
26.03.2017 10:22 6,8 C 72 % 1021,6 hPa 0,0 l/m 24,5 km/h (4 Bft) O-NO 57 2 min 0,000 mm 1,3 UV-I 527 W/m 2,1 C -2,4 C 33,8 km/h (5 Bft) 94,64 %
26.03.2017 10:24 6,8 C 70 % 1021,7 hPa 0,0 l/m 29,2 km/h (5 Bft) O-NO 68 2 min 0,000 mm 1,3 UV-I 535 W/m 1,7 C -3,6 C 38,6 km/h (5 Bft) 97,56 %
26.03.2017 10:26 6,7 C 70 % 1021,7 hPa 0,0 l/m 27,9 km/h (4 Bft) O 101 2 min 0,000 mm 1,3 UV-I 538 W/m 1,6 C -3,5 C 40,2 km/h (6 Bft) 91,07 %
26.03.2017 10:28 6,7 C 71 % 1021,7 hPa 0,0 l/m 24,7 km/h (4 Bft) O-NO 73 2 min 0,000 mm 1,3 UV-I 542 W/m 1,8 C -2,5 C 37,0 km/h (5 Bft) 95,12 %
26.03.2017 10:30 6,7 C 71 % 1021,6 hPa 0,0 l/m 22,5 km/h (4 Bft) O-NO 74 2 min 0,000 mm 1,3 UV-I 544 W/m 1,8 C -1,9 C 29,0 km/h (5 Bft) 98,21 %
26.03.2017 10:32 6,8 C 72 % 1021,7 hPa 0,0 l/m 25,0 km/h (4 Bft) O 88 2 min 0,000 mm 1,4 UV-I 550 W/m 2,1 C -2,5 C 33,8 km/h (5 Bft) 92,11 %
26.03.2017 10:34 6,9 C 70 % 1021,7 hPa 0,0 l/m 29,3 km/h (5 Bft) O-NO 62 2 min 0,000 mm 1,4 UV-I 556 W/m 1,8 C -3,5 C 38,6 km/h (5 Bft) 96,23 %
26.03.2017 10:36 6,9 C 71 % 1021,7 hPa 0,0 l/m 23,9 km/h (4 Bft) O-NO 73 2 min 0,000 mm 1,4 UV-I 561 W/m 2,0 C -2,0 C 32,2 km/h (5 Bft) 95,12 %
26.03.2017 10:38 6,9 C 71 % 1021,8 hPa 0,0 l/m 27,8 km/h (4 Bft) NO 44 2 min 0,000 mm 1,4 UV-I 555 W/m 2,0 C -3,1 C 35,4 km/h (5 Bft) 96,23 %
26.03.2017 10:40 6,9 C 71 % 1021,8 hPa 0,0 l/m 23,8 km/h (4 Bft) O-NO 65 2 min 0,000 mm 1,4 UV-I 553 W/m 2,0 C -2,0 C 32,2 km/h (5 Bft) 95,45 %
26.03.2017 10:42 6,9 C 71 % 1021,8 hPa 0,0 l/m 24,4 km/h (4 Bft) O-NO 58 2 min 0,000 mm 1,5 UV-I 564 W/m 2,0 C -2,2 C 32,2 km/h (5 Bft) 92,68 %
26.03.2017 10:44 7,1 C 71 % 1021,7 hPa 0,0 l/m 22,1 km/h (4 Bft) NO 48 2 min 0,000 mm 1,5 UV-I 569 W/m 2,2 C -1,2 C 29,0 km/h (5 Bft) 97,87 %
26.03.2017 10:46 7,1 C 72 % 1021,8 hPa 0,0 l/m 20,5 km/h (4 Bft) O-NO 59 2 min 0,000 mm 1,5 UV-I 579 W/m 2,4 C -0,6 C 30,6 km/h (5 Bft) 96,23 %
26.03.2017 10:48 7,2 C 71 % 1021,7 hPa 0,0 l/m 24,8 km/h (4 Bft) O-NO 61 2 min 0,000 mm 1,6 UV-I 585 W/m 2,3 C -1,9 C 38,6 km/h (5 Bft) 90,24 %
26.03.2017 10:50 7,2 C 70 % 1021,8 hPa 0,0 l/m 28,9 km/h (5 Bft) NO 44 2 min 0,000 mm 1,6 UV-I 589 W/m 2,1 C -3,0 C 37,0 km/h (5 Bft) 90,91 %
26.03.2017 10:52 7,2 C 70 % 1021,8 hPa 0,0 l/m 21,5 km/h (4 Bft) O-NO 74 2 min 0,000 mm 1,6 UV-I 598 W/m 2,1 C -0,9 C 30,6 km/h (5 Bft) 96,23 %
26.03.2017 10:54 7,2 C 68 % 1021,8 hPa 0,0 l/m 29,6 km/h (5 Bft) O-NO 62 2 min 0,000 mm 1,7 UV-I 603 W/m 1,7 C -3,2 C 38,6 km/h (5 Bft) 95,74 %
26.03.2017 10:56 7,2 C 68 % 1021,8 hPa 0,0 l/m 25,9 km/h (4 Bft) O-NO 60 2 min 0,000 mm 1,7 UV-I 610 W/m 1,7 C -2,2 C 35,4 km/h (5 Bft) 91,49 %
26.03.2017 10:58 7,2 C 68 % 1021,8 hPa 0,0 l/m 26,6 km/h (4 Bft) O-NO 57 2 min 0,000 mm 1,7 UV-I 614 W/m 1,7 C -2,4 C 35,4 km/h (5 Bft) 95,74 %
26.03.2017 11:00 7,3 C 68 % 1021,8 hPa 0,0 l/m 27,7 km/h (4 Bft) O-NO 58 2 min 0,305 mm 1,7 UV-I 618 W/m 1,8 C -2,6 C 38,6 km/h (5 Bft) 96,00 %
26.03.2017 11:02 7,3 C 68 % 1021,9 hPa 0,0 l/m 26,9 km/h (4 Bft) NO 56 2 min 0,000 mm 1,8 UV-I 619 W/m 1,8 C -2,4 C 37,0 km/h (5 Bft) 95,00 %
26.03.2017 11:04 7,4 C 68 % 1021,8 hPa 0,0 l/m 25,2 km/h (4 Bft) N-NO 33 2 min 0,000 mm 1,8 UV-I 624 W/m 1,9 C -1,7 C 33,8 km/h (5 Bft) 94,34 %
26.03.2017 11:06 7,6 C 68 % 1021,9 hPa 0,0 l/m 27,1 km/h (4 Bft) NO 39 2 min 0,000 mm 1,8 UV-I 632 W/m 2,1 C -2,0 C 37,0 km/h (5 Bft) 88,64 %
26.03.2017 11:08 7,7 C 67 % 1021,9 hPa 0,0 l/m 23,0 km/h (4 Bft) O-NO 64 2 min 0,000 mm 1,8 UV-I 637 W/m 2,0 C -0,7 C 30,6 km/h (5 Bft) 98,00 %
26.03.2017 11:10 7,8 C 66 % 1021,9 hPa 0,0 l/m 21,1 km/h (4 Bft) O-NO 58 2 min 0,000 mm 1,9 UV-I 639 W/m 1,9 C 0,1 C 27,4 km/h (4 Bft) 95,12 %
26.03.2017 11:12 7,8 C 64 % 1021,9 hPa 0,0 l/m 19,5 km/h (3 Bft) NO 56 2 min 0,000 mm 1,9 UV-I 641 W/m 1,4 C 0,6 C 29,0 km/h (5 Bft) 90,00 %
26.03.2017 11:14 7,8 C 65 % 1021,9 hPa 0,0 l/m 18,8 km/h (3 Bft) NO 45 2 min 0,000 mm 1,9 UV-I 645 W/m 1,6 C 0,9 C 27,4 km/h (4 Bft) 95,74 %
26.03.2017 11:16 7,9 C 65 % 1021,9 hPa 0,0 l/m 18,6 km/h (3 Bft) O-NO 61 2 min 0,000 mm 1,9 UV-I 649 W/m 1,7 C 1,1 C 24,1 km/h (4 Bft) 97,56 %
26.03.2017 11:18 8,1 C 65 % 1022,0 hPa 0,0 l/m 21,1 km/h (4 Bft) O-NO 59 2 min 0,000 mm 1,9 UV-I 652 W/m 1,9 C 0,5 C 30,6 km/h (5 Bft) 90,57 %
26.03.2017 11:20 8,3 C 65 % 1022,0 hPa 0,0 l/m 16,0 km/h (3 Bft) N-NO 15 2 min 0,000 mm 2,0 UV-I 657 W/m 2,1 C 2,6 C 20,9 km/h (4 Bft) 92,45 %
26.03.2017 11:22 8,4 C 63 % 1022,1 hPa 0,0 l/m 15,3 km/h (3 Bft) O-NO 60 2 min 0,000 mm 2,0 UV-I 658 W/m 1,8 C 3,1 C 22,5 km/h (4 Bft) 88,64 %
26.03.2017 11:24 8,4 C 61 % 1022,1 hPa 0,0 l/m 22,9 km/h (4 Bft) O-NO 61 2 min 0,000 mm 2,0 UV-I 661 W/m 1,3 C 0,3 C 32,2 km/h (5 Bft) 95,12 %
26.03.2017 11:26 8,3 C 57 % 1022,2 hPa 0,0 l/m 28,4 km/h (4 Bft) NO 46 2 min 0,000 mm 2,0 UV-I 664 W/m 0,3 C -1,4 C 40,2 km/h (6 Bft) 94,00 %
26.03.2017 11:28 8,2 C 57 % 1022,2 hPa 0,0 l/m 29,2 km/h (5 Bft) NO 49 2 min 0,000 mm 2,0 UV-I 664 W/m 0,2 C -1,7 C 45,1 km/h (6 Bft) 97,14 %
26.03.2017 11:30 8,3 C 58 % 1022,2 hPa 0,0 l/m 22,6 km/h (4 Bft) NO 49 2 min 0,000 mm 2,0 UV-I 663 W/m 0,5 C 0,2 C 30,6 km/h (5 Bft) 96,23 %
26.03.2017 11:32 8,3 C 58 % 1022,2 hPa 0,0 l/m 23,4 km/h (4 Bft) O-NO 65 2 min 0,000 mm 2,0 UV-I 660 W/m 0,5 C -0,0 C 30,6 km/h (5 Bft) 91,07 %
26.03.2017 11:34 8,3 C 59 % 1022,3 hPa 0,0 l/m 24,1 km/h (4 Bft) O-NO 67 2 min 0,000 mm 2,0 UV-I 664 W/m 0,8 C -0,2 C 30,6 km/h (5 Bft) 97,56 %
26.03.2017 11:36 8,4 C 57 % 1022,3 hPa 0,0 l/m 30,3 km/h (5 Bft) NO 55 2 min 0,000 mm 2,0 UV-I 668 W/m 0,4 C -1,7 C 40,2 km/h (6 Bft) 98,11 %
26.03.2017 11:38 8,3 C 53 % 1022,3 hPa 0,0 l/m 31,4 km/h (5 Bft) O-SO 107 2 min 0,000 mm 2,1 UV-I 676 W/m -0,7 C -2,0 C 45,1 km/h (6 Bft) 90,48 %
26.03.2017 11:40 8,2 C 54 % 1022,2 hPa 0,0 l/m 27,4 km/h (4 Bft) O-NO 67 2 min 0,000 mm 2,1 UV-I 689 W/m -0,5 C -1,2 C 35,4 km/h (5 Bft) 88,46 %
26.03.2017 11:42 8,3 C 56 % 1022,3 hPa 0,0 l/m 26,0 km/h (4 Bft) NO 44 2 min 0,000 mm 2,2 UV-I 691 W/m 0,0 C -0,7 C 35,4 km/h (5 Bft) 91,67 %
26.03.2017 11:44 8,3 C 54 % 1022,3 hPa 0,0 l/m 27,7 km/h (4 Bft) O-NO 66 2 min 0,000 mm 2,2 UV-I 693 W/m -0,5 C -1,2 C 38,6 km/h (5 Bft) 95,12 %
26.03.2017 11:46 8,2 C 53 % 1022,2 hPa 0,0 l/m 26,3 km/h (4 Bft) NO 49 2 min 0,000 mm 2,2 UV-I 694 W/m -0,8 C -1,0 C 40,2 km/h (6 Bft) 95,12 %
26.03.2017 11:48 8,2 C 57 % 1022,3 hPa 0,0 l/m 28,1 km/h (4 Bft) NO 55 2 min 0,000 mm 2,2 UV-I 696 W/m 0,2 C -1,4 C 35,4 km/h (5 Bft) 89,83 %
26.03.2017 11:50 8,3 C 48 % 1022,3 hPa 0,0 l/m 32,8 km/h (5 Bft) O-NO 71 2 min 0,000 mm 2,2 UV-I 702 W/m -2,1 C -2,3 C 45,1 km/h (6 Bft) 92,11 %
26.03.2017 11:52 8,3 C 49 % 1022,3 hPa 0,0 l/m 31,2 km/h (5 Bft) O-NO 67 2 min 0,000 mm 2,2 UV-I 705 W/m -1,8 C -2,0 C 41,8 km/h (6 Bft) 94,74 %
26.03.2017 11:54 8,3 C 44 % 1022,4 hPa 0,0 l/m 30,8 km/h (5 Bft) O-NO 71 2 min 0,000 mm 2,2 UV-I 709 W/m -3,2 C -1,9 C 45,1 km/h (6 Bft) 96,23 %
26.03.2017 11:56 8,4 C 48 % 1022,4 hPa 0,0 l/m 26,7 km/h (4 Bft) O-NO 59 2 min 0,000 mm 2,2 UV-I 709 W/m -2,0 C -0,8 C 37,0 km/h (5 Bft) 95,74 %
26.03.2017 11:58 8,4 C 50 % 1022,5 hPa 0,0 l/m 26,3 km/h (4 Bft) O-NO 73 2 min 0,000 mm 2,2 UV-I 711 W/m -1,4 C -0,7 C 37,0 km/h (5 Bft) 86,36 %
26.03.2017 12:00 8,5 C 50 % 1022,4 hPa 0,0 l/m 23,7 km/h (4 Bft) O 89 2 min 0,381 mm 2,3 UV-I 713 W/m -1,3 C 0,2 C 33,8 km/h (5 Bft) 96,61 %
26.03.2017 12:02 8,6 C 53 % 1022,5 hPa 0,0 l/m 22,2 km/h (4 Bft) O-NO 61 2 min 0,000 mm 2,3 UV-I 716 W/m -0,4 C 0,8 C 29,0 km/h (5 Bft) 92,11 %
26.03.2017 12:04 8,7 C 52 % 1022,5 hPa 0,0 l/m 24,5 km/h (4 Bft) O 80 2 min 0,000 mm 2,3 UV-I 721 W/m -0,6 C 0,2 C 37,0 km/h (5 Bft) 90,00 %
26.03.2017 12:06 8,7 C 49 % 1022,5 hPa 0,0 l/m 27,7 km/h (4 Bft) O-NO 78 2 min 0,000 mm 2,3 UV-I 724 W/m -1,4 C -0,6 C 35,4 km/h (5 Bft) 93,18 %
26.03.2017 12:08 8,7 C 44 % 1022,4 hPa 0,0 l/m 27,1 km/h (4 Bft) O 86 2 min 0,000 mm 2,3 UV-I 724 W/m -2,9 C -0,5 C 37,0 km/h (5 Bft) 96,23 %
26.03.2017 12:10 8,8 C 41 % 1022,4 hPa 0,0 l/m 30,7 km/h (5 Bft) O 91 2 min 0,000 mm 2,3 UV-I 722 W/m -3,7 C -1,2 C 43,5 km/h (6 Bft) 98,00 %
26.03.2017 12:12 8,9 C 42 % 1022,4 hPa 0,0 l/m 24,2 km/h (4 Bft) O-NO 71 2 min 0,000 mm 2,3 UV-I 726 W/m -3,3 C 0,6 C 33,8 km/h (5 Bft) 89,36 %
26.03.2017 12:14 9,0 C 39 % 1022,4 hPa 0,0 l/m 29,0 km/h (5 Bft) O-NO 65 2 min 0,000 mm 2,3 UV-I 727 W/m -4,2 C -0,5 C 40,2 km/h (6 Bft) 96,97 %
26.03.2017 12:16 9,1 C 40 % 1022,4 hPa 0,0 l/m 26,6 km/h (4 Bft) O-NO 67 2 min 0,000 mm 2,3 UV-I 728 W/m -3,8 C 0,2 C 37,0 km/h (5 Bft) 95,74 %
26.03.2017 12:18 9,2 C 41 % 1022,3 hPa 0,0 l/m 27,4 km/h (4 Bft) O-NO 73 2 min 0,000 mm 2,4 UV-I 727 W/m -3,4 C 0,1 C 35,4 km/h (5 Bft) 94,83 %
26.03.2017 12:20 9,1 C 42 % 1022,3 hPa 0,0 l/m 28,7 km/h (4 Bft) O-NO 68 2 min 0,000 mm 2,4 UV-I 729 W/m -3,1 C -0,3 C 35,4 km/h (5 Bft) 90,91 %
26.03.2017 12:22 9,1 C 45 % 1022,4 hPa 0,0 l/m 26,9 km/h (4 Bft) O 88 2 min 0,000 mm 2,4 UV-I 730 W/m -2,2 C 0,1 C 33,8 km/h (5 Bft) 96,43 %
26.03.2017 12:24 9,2 C 42 % 1022,4 hPa 0,0 l/m 25,1 km/h (4 Bft) O-NO 75 2 min 0,000 mm 2,4 UV-I 730 W/m -3,0 C 0,7 C 35,4 km/h (5 Bft) 92,00 %
26.03.2017 12:26 9,1 C 43 % 1022,4 hPa 0,0 l/m 22,8 km/h (4 Bft) O-NO 61 2 min 0,000 mm 2,4 UV-I 735 W/m -2,8 C 1,2 C 29,0 km/h (5 Bft) 94,00 %
26.03.2017 12:28 9,1 C 42 % 1022,4 hPa 0,0 l/m 27,4 km/h (4 Bft) O-NO 77 2 min 0,000 mm 2,4 UV-I 734 W/m -3,1 C -0,0 C 41,8 km/h (6 Bft) 97,37 %
26.03.2017 12:30 9,1 C 43 % 1022,3 hPa 0,0 l/m 27,9 km/h (4 Bft) O-NO 59 2 min 0,000 mm 2,4 UV-I 737 W/m -2,8 C -0,1 C 41,8 km/h (6 Bft) 96,00 %
26.03.2017 12:32 9,1 C 45 % 1022,4 hPa 0,0 l/m 22,1 km/h (4 Bft) O-NO 62 2 min 0,000 mm 2,4 UV-I 739 W/m -2,2 C 1,4 C 33,8 km/h (5 Bft) 92,00 %
26.03.2017 12:34 9,1 C 44 % 1022,4 hPa 0,0 l/m 28,3 km/h (4 Bft) O-NO 57 2 min 0,000 mm 2,4 UV-I 738 W/m -2,5 C -0,2 C 37,0 km/h (5 Bft) 92,68 %
26.03.2017 12:36 9,2 C 46 % 1022,4 hPa 0,0 l/m 26,8 km/h (4 Bft) O-NO 61 2 min 0,000 mm 2,4 UV-I 741 W/m -1,8 C 0,3 C 40,2 km/h (6 Bft) 96,23 %
26.03.2017 12:38 9,1 C 44 % 1022,4 hPa 0,0 l/m 29,8 km/h (5 Bft) O-NO 69 2 min 0,000 mm 2,5 UV-I 744 W/m -2,5 C -0,6 C 40,2 km/h (6 Bft) 94,74 %
26.03.2017 12:40 9,1 C 46 % 1022,4 hPa 0,0 l/m 25,0 km/h (4 Bft) O-NO 61 2 min 0,000 mm 2,5 UV-I 745 W/m -1,9 C 0,6 C 32,2 km/h (5 Bft) 92,45 %
26.03.2017 12:42 9,2 C 45 % 1022,5 hPa 0,0 l/m 29,8 km/h (5 Bft) N-NO 28 2 min 0,000 mm 2,5 UV-I 749 W/m -2,1 C -0,4 C 38,6 km/h (5 Bft) 96,00 %
26.03.2017 12:44 9,1 C 46 % 1022,5 hPa 0,0 l/m 29,3 km/h (5 Bft) NO 53 2 min 0,000 mm 2,5 UV-I 751 W/m -1,9 C -0,5 C 37,0 km/h (5 Bft) 91,49 %
26.03.2017 12:46 9,1 C 46 % 1022,5 hPa 0,0 l/m 27,6 km/h (4 Bft) O-NO 77 2 min 0,000 mm 2,5 UV-I 750 W/m -1,9 C -0,1 C 37,0 km/h (5 Bft) 94,74 %
26.03.2017 12:48 9,1 C 43 % 1022,5 hPa 0,0 l/m 24,5 km/h (4 Bft) O-NO 63 2 min 0,000 mm 2,5 UV-I 753 W/m -2,8 C 0,7 C 33,8 km/h (5 Bft) 94,34 %
26.03.2017 12:50 9,3 C 46 % 1022,5 hPa 0,0 l/m 20,0 km/h (4 Bft) NO 56 2 min 0,000 mm 2,5 UV-I 752 W/m -1,7 C 2,4 C 25,7 km/h (4 Bft) 95,12 %
26.03.2017 12:52 9,4 C 43 % 1022,4 hPa 0,0 l/m 21,8 km/h (4 Bft) NO 50 2 min 0,000 mm 2,5 UV-I 752 W/m -2,5 C 1,9 C 30,6 km/h (5 Bft) 88,68 %
26.03.2017 12:54 9,4 C 42 % 1022,5 hPa 0,0 l/m 25,6 km/h (4 Bft) O-NO 66 2 min 0,000 mm 2,5 UV-I 754 W/m -2,8 C 0,9 C 35,4 km/h (5 Bft) 95,74 %
26.03.2017 12:56 9,4 C 43 % 1022,5 hPa 0,0 l/m 21,9 km/h (4 Bft) NO 40 2 min 0,000 mm 2,5 UV-I 756 W/m -2,5 C 1,9 C 32,2 km/h (5 Bft) 87,23 %
26.03.2017 12:58 9,6 C 44 % 1022,5 hPa 0,0 l/m 27,0 km/h (4 Bft) O-NO 58 2 min 0,000 mm 2,5 UV-I 756 W/m -2,0 C 0,8 C 35,4 km/h (5 Bft) 92,31 %
26.03.2017 13:00 9,7 C 39 % 1022,5 hPa 0,0 l/m 24,5 km/h (4 Bft) O-NO 57 2 min 0,483 mm 2,5 UV-I 758 W/m -3,6 C 1,6 C 37,0 km/h (5 Bft) 96,61 %
26.03.2017 13:02 9,6 C 35 % 1022,5 hPa 0,0 l/m 33,5 km/h (5 Bft) O-NO 60 2 min 0,000 mm 2,5 UV-I 760 W/m -5,1 C -0,6 C 45,1 km/h (6 Bft) 92,68 %
26.03.2017 13:04 9,5 C 37 % 1022,4 hPa 0,0 l/m 27,8 km/h (4 Bft) NO 44 2 min 0,000 mm 2,5 UV-I 757 W/m -4,4 C 0,5 C 38,6 km/h (5 Bft) 92,45 %
26.03.2017 13:06 9,6 C 36 % 1022,6 hPa 0,0 l/m 27,1 km/h (4 Bft) O-NO 62 2 min 0,000 mm 2,5 UV-I 760 W/m -4,7 C 0,8 C 41,8 km/h (6 Bft) 94,87 %
26.03.2017 13:08 9,6 C 33 % 1022,5 hPa 0,0 l/m 35,8 km/h (5 Bft) O-NO 76 2 min 0,000 mm 2,5 UV-I 760 W/m -5,9 C -1,0 C 46,7 km/h (6 Bft) 92,00 %
26.03.2017 13:10 9,4 C 30 % 1022,5 hPa 0,0 l/m 34,8 km/h (5 Bft) O-NO 74 2 min 0,000 mm 2,5 UV-I 758 W/m -7,3 C -1,1 C 48,3 km/h (6 Bft) 96,00 %
26.03.2017 13:12 9,4 C 30 % 1022,5 hPa 0,0 l/m 35,7 km/h (5 Bft) O 85 2 min 0,000 mm 2,5 UV-I 762 W/m -7,3 C -1,3 C 46,7 km/h (6 Bft) 97,56 %
26.03.2017 13:14 9,4 C 33 % 1022,5 hPa 0,0 l/m 32,9 km/h (5 Bft) O-NO 59 2 min 0,000 mm 2,5 UV-I 760 W/m -6,0 C -0,8 C 40,2 km/h (6 Bft) 93,18 %
26.03.2017 13:16 9,4 C 30 % 1022,5 hPa 0,0 l/m 33,3 km/h (5 Bft) NO 41 2 min 0,000 mm 2,5 UV-I 760 W/m -7,3 C -0,9 C 41,8 km/h (6 Bft) 86,79 %
26.03.2017 13:18 9,4 C 34 % 1022,5 hPa 0,0 l/m 29,9 km/h (5 Bft) O-NO 74 2 min 0,000 mm 2,5 UV-I 756 W/m -5,6 C -0,2 C 38,6 km/h (5 Bft) 90,91 %
26.03.2017 13:20 9,4 C 35 % 1022,5 hPa 0,0 l/m 32,8 km/h (5 Bft) NO 34 2 min 0,000 mm 2,5 UV-I 756 W/m -5,3 C -0,8 C 45,1 km/h (6 Bft) 92,68 %
26.03.2017 13:22 9,3 C 34 % 1022,5 hPa 0,0 l/m 34,8 km/h (5 Bft) O 83 2 min 0,000 mm 2,5 UV-I 759 W/m -5,7 C -1,3 C 48,3 km/h (6 Bft) 94,34 %
26.03.2017 13:24 9,4 C 36 % 1022,4 hPa 0,0 l/m 33,0 km/h (5 Bft) NO 40 2 min 0,000 mm 2,5 UV-I 758 W/m -4,9 C -0,8 C 41,8 km/h (6 Bft) 90,57 %
26.03.2017 13:26 9,3 C 38 % 1022,5 hPa 0,0 l/m 34,7 km/h (5 Bft) O-NO 73 2 min 0,000 mm 2,5 UV-I 758 W/m -4,3 C -1,3 C 46,7 km/h (6 Bft) 92,11 %
26.03.2017 13:28 9,3 C 38 % 1022,5 hPa 0,0 l/m 33,7 km/h (5 Bft) NO 55 2 min 0,000 mm 2,5 UV-I 759 W/m -4,3 C -1,1 C 43,5 km/h (6 Bft) 90,24 %
26.03.2017 13:30 9,3 C 37 % 1022,5 hPa 0,0 l/m 28,3 km/h (4 Bft) O-NO 65 2 min 0,000 mm 2,5 UV-I 755 W/m -4,6 C 0,1 C 40,2 km/h (6 Bft) 92,45 %
26.03.2017 13:32 9,4 C 36 % 1022,4 hPa 0,0 l/m 27,4 km/h (4 Bft) O-NO 74 2 min 0,000 mm 2,5 UV-I 757 W/m -4,9 C 0,4 C 35,4 km/h (5 Bft) 90,57 %
26.03.2017 13:34 9,6 C 38 % 1022,5 hPa 0,0 l/m 28,1 km/h (4 Bft) O 86 2 min 0,000 mm 2,5 UV-I 757 W/m -4,0 C 0,5 C 33,8 km/h (5 Bft) 92,86 %
26.03.2017 13:36 9,6 C 38 % 1022,5 hPa 0,0 l/m 27,8 km/h (4 Bft) NO 53 2 min 0,000 mm 2,5 UV-I 755 W/m -4,0 C 0,6 C 38,6 km/h (5 Bft) 92,00 %
26.03.2017 13:38 9,7 C 40 % 1022,5 hPa 0,0 l/m 27,0 km/h (4 Bft) O-NO 57 2 min 0,000 mm 2,5 UV-I 752 W/m -3,2 C 0,9 C 40,2 km/h (6 Bft) 93,88 %
26.03.2017 13:40 9,7 C 38 % 1022,5 hPa 0,0 l/m 27,9 km/h (4 Bft) O 92 2 min 0,000 mm 2,5 UV-I 751 W/m -3,9 C 0,7 C 41,8 km/h (6 Bft) 94,44 %
26.03.2017 13:42 9,7 C 39 % 1022,5 hPa 0,0 l/m 25,3 km/h (4 Bft) O-NO 63 2 min 0,000 mm 2,5 UV-I 746 W/m -3,6 C 1,3 C 35,4 km/h (5 Bft) 96,43 %
26.03.2017 13:44 9,8 C 40 % 1022,5 hPa 0,0 l/m 29,9 km/h (5 Bft) O-NO 62 2 min 0,000 mm 2,5 UV-I 749 W/m -3,1 C 0,4 C 43,5 km/h (6 Bft) 92,00 %
26.03.2017 13:46 9,8 C 39 % 1022,5 hPa 0,0 l/m 23,4 km/h (4 Bft) O 81 2 min 0,000 mm 2,5 UV-I 745 W/m -3,5 C 2,0 C 30,6 km/h (5 Bft) 95,12 %
26.03.2017 13:48 9,8 C 36 % 1022,5 hPa 0,0 l/m 30,4 km/h (5 Bft) O 83 2 min 0,000 mm 2,5 UV-I 748 W/m -4,5 C 0,3 C 38,6 km/h (5 Bft) 100,00 %
26.03.2017 13:50 9,8 C 36 % 1022,5 hPa 0,0 l/m 29,5 km/h (5 Bft) O-NO 57 2 min 0,000 mm 2,5 UV-I 745 W/m -4,5 C 0,5 C 37,0 km/h (5 Bft) 98,31 %
26.03.2017 13:52 9,7 C 37 % 1022,7 hPa 0,0 l/m 29,0 km/h (5 Bft) NO 52 2 min 0,000 mm 2,4 UV-I 738 W/m -4,3 C 0,5 C 43,5 km/h (6 Bft) 94,74 %
26.03.2017 13:54 9,7 C 38 % 1022,7 hPa 0,0 l/m 25,1 km/h (4 Bft) NO 48 2 min 0,000 mm 2,4 UV-I 735 W/m -3,9 C 1,4 C 40,2 km/h (6 Bft) 98,00 %
26.03.2017 13:56 9,8 C 37 % 1022,6 hPa 0,0 l/m 23,2 km/h (4 Bft) NO 51 2 min 0,000 mm 2,4 UV-I 735 W/m -4,2 C 2,1 C 37,0 km/h (5 Bft) 98,00 %
26.03.2017 13:58 9,9 C 42 % 1022,7 hPa 0,0 l/m 20,6 km/h (4 Bft) O 79 2 min 0,000 mm 2,4 UV-I 736 W/m -2,4 C 3,0 C 27,4 km/h (4 Bft) 97,37 %
26.03.2017 14:00 10,0 C 39 % 1022,6 hPa 0,0 l/m 20,6 km/h (4 Bft) O-NO 77 2 min 0,533 mm 2,4 UV-I 734 W/m -3,3 C 3,1 C 33,8 km/h (5 Bft) 100,00 %
26.03.2017 14:02 10,0 C 39 % 1022,6 hPa 0,0 l/m 25,7 km/h (4 Bft) O-NO 63 2 min 0,000 mm 2,4 UV-I 733 W/m -3,3 C 1,7 C 33,8 km/h (5 Bft) 100,00 %
26.03.2017 14:04 10,0 C 39 % 1022,6 hPa 0,0 l/m 25,4 km/h (4 Bft) O-NO 77 2 min 0,000 mm 2,4 UV-I 730 W/m -3,3 C 1,7 C 32,2 km/h (5 Bft) 100,00 %
26.03.2017 14:06 10,1 C 38 % 1022,6 hPa 0,0 l/m 22,3 km/h (4 Bft) O-NO 60 2 min 0,000 mm 2,4 UV-I 726 W/m -3,6 C 2,7 C 30,6 km/h (5 Bft) 94,29 %
26.03.2017 14:08 10,2 C 41 % 1022,6 hPa 0,0 l/m 19,8 km/h (3 Bft) O-NO 67 2 min 0,000 mm 2,4 UV-I 723 W/m -2,5 C 3,6 C 32,2 km/h (5 Bft) 97,14 %
26.03.2017 14:10 10,2 C 38 % 1022,5 hPa 0,0 l/m 20,0 km/h (4 Bft) O-NO 67 2 min 0,000 mm 2,3 UV-I 720 W/m -3,5 C 3,5 C 27,4 km/h (4 Bft) 100,00 %
26.03.2017 14:12 10,2 C 42 % 1022,6 hPa 0,0 l/m 23,0 km/h (4 Bft) O-NO 59 2 min 0,000 mm 2,3 UV-I 714 W/m -2,1 C 2,6 C 33,8 km/h (5 Bft) 97,44 %
26.03.2017 14:14 10,2 C 41 % 1022,5 hPa 0,0 l/m 23,1 km/h (4 Bft) NO 55 2 min 0,000 mm 2,3 UV-I 713 W/m -2,5 C 2,6 C 32,2 km/h (5 Bft) 96,36 %
26.03.2017 14:16 10,1 C 41 % 1022,5 hPa 0,0 l/m 24,0 km/h (4 Bft) O 85 2 min 0,000 mm 2,3 UV-I 708 W/m -2,5 C 2,2 C 30,6 km/h (5 Bft) 92,86 %
26.03.2017 14:18 10,2 C 42 % 1022,5 hPa 0,0 l/m 20,5 km/h (4 Bft) O-NO 57 2 min 0,000 mm 2,3 UV-I 708 W/m -2,1 C 3,4 C 30,6 km/h (5 Bft) 95,74 %
26.03.2017 14:20 10,3 C 43 % 1022,5 hPa 0,0 l/m 20,5 km/h (4 Bft) O-NO 59 2 min 0,000 mm 2,3 UV-I 706 W/m -1,7 C 3,5 C 27,4 km/h (4 Bft) 100,00 %
26.03.2017 14:22 10,4 C 42 % 1022,5 hPa 0,0 l/m 20,8 km/h (4 Bft) O-NO 76 2 min 0,000 mm 2,3 UV-I 705 W/m -1,9 C 3,6 C 30,6 km/h (5 Bft) 100,00 %
26.03.2017 14:24 10,3 C 42 % 1022,4 hPa 0,0 l/m 20,5 km/h (4 Bft) O-NO 62 2 min 0,000 mm 2,2 UV-I 704 W/m -2,0 C 3,5 C 27,4 km/h (4 Bft) 94,34 %
26.03.2017 14:26 10,3 C 43 % 1022,4 hPa 0,0 l/m 20,6 km/h (4 Bft) O 89 2 min 0,000 mm 2,2 UV-I 701 W/m -1,7 C 3,5 C 27,4 km/h (4 Bft) 97,56 %
26.03.2017 14:28 10,4 C 45 % 1022,5 hPa 0,0 l/m 17,6 km/h (3 Bft) O-NO 74 2 min 0,000 mm 2,2 UV-I 699 W/m -1,0 C 4,6 C 25,7 km/h (4 Bft) 100,00 %
26.03.2017 14:30 10,5 C 44 % 1022,4 hPa 0,0 l/m 17,7 km/h (3 Bft) O-NO 61 2 min 0,000 mm 2,2 UV-I 698 W/m -1,2 C 4,7 C 24,1 km/h (4 Bft) 100,00 %
26.03.2017 14:32 10,5 C 43 % 1022,4 hPa 0,0 l/m 16,1 km/h (3 Bft) O-NO 71 2 min 0,000 mm 2,2 UV-I 694 W/m -1,5 C 5,3 C 27,4 km/h (4 Bft) 100,00 %
26.03.2017 14:34 10,5 C 41 % 1022,5 hPa 0,0 l/m 21,8 km/h (4 Bft) NO 50 2 min 0,000 mm 2,2 UV-I 691 W/m -2,2 C 3,4 C 32,2 km/h (5 Bft) 97,56 %
26.03.2017 14:36 10,4 C 40 % 1022,5 hPa 0,0 l/m 22,5 km/h (4 Bft) NO 51 2 min 0,000 mm 2,2 UV-I 687 W/m -2,6 C 3,0 C 33,8 km/h (5 Bft) 97,87 %
26.03.2017 14:38 10,4 C 43 % 1022,4 hPa 0,0 l/m 23,0 km/h (4 Bft) NO 56 2 min 0,000 mm 2,2 UV-I 683 W/m -1,6 C 2,9 C 30,6 km/h (5 Bft) 97,73 %
26.03.2017 14:40 10,4 C 42 % 1022,4 hPa 0,0 l/m 26,3 km/h (4 Bft) NO 46 2 min 0,000 mm 2,1 UV-I 680 W/m -1,9 C 2,1 C 35,4 km/h (5 Bft) 100,00 %
26.03.2017 14:42 10,3 C 41 % 1022,4 hPa 0,0 l/m 19,7 km/h (3 Bft) O-NO 67 2 min 0,000 mm 2,1 UV-I 679 W/m -2,4 C 3,8 C 25,7 km/h (4 Bft) 97,73 %
26.03.2017 14:44 10,4 C 42 % 1022,2 hPa 0,0 l/m 21,4 km/h (4 Bft) NO 54 2 min 0,000 mm 2,1 UV-I 676 W/m -1,9 C 3,4 C 29,0 km/h (5 Bft) 100,00 %
26.03.2017 14:46 10,5 C 41 % 1022,2 hPa 0,0 l/m 23,7 km/h (4 Bft) O-NO 61 2 min 0,000 mm 2,1 UV-I 673 W/m -2,2 C 2,9 C 32,2 km/h (5 Bft) 100,00 %
26.03.2017 14:48 10,5 C 41 % 1022,2 hPa 0,0 l/m 20,7 km/h (4 Bft) O-NO 73 2 min 0,000 mm 2,1 UV-I 667 W/m -2,2 C 3,7 C 30,6 km/h (5 Bft) 97,56 %
26.03.2017 14:50 10,6 C 41 % 1022,2 hPa 0,0 l/m 23,2 km/h (4 Bft) O-NO 61 2 min 0,000 mm 2,0 UV-I 668 W/m -2,1 C 3,1 C 30,6 km/h (5 Bft) 96,23 %
26.03.2017 14:52 10,6 C 43 % 1022,3 hPa 0,0 l/m 15,7 km/h (3 Bft) O-NO 57 2 min 0,000 mm 2,0 UV-I 666 W/m -1,4 C 5,6 C 25,7 km/h (4 Bft) 97,44 %
26.03.2017 14:54 10,7 C 43 % 1022,2 hPa 0,0 l/m 21,4 km/h (4 Bft) NO 51 2 min 0,000 mm 2,0 UV-I 660 W/m -1,4 C 3,8 C 29,0 km/h (5 Bft) 96,00 %
26.03.2017 14:56 10,7 C 41 % 1022,2 hPa 0,0 l/m 19,9 km/h (4 Bft) O-NO 70 2 min 0,000 mm 2,0 UV-I 657 W/m -2,0 C 4,2 C 29,0 km/h (5 Bft) 90,91 %
26.03.2017 14:58 10,7 C 41 % 1022,2 hPa 0,0 l/m 21,8 km/h (4 Bft) O-NO 65 2 min 0,000 mm 2,0 UV-I 655 W/m -2,0 C 3,6 C 29,0 km/h (5 Bft) 97,44 %
26.03.2017 15:00 10,6 C 40 % 1022,2 hPa 0,0 l/m 20,8 km/h (4 Bft) O-NO 77 2 min 0,457 mm 2,0 UV-I 652 W/m -2,4 C 3,8 C 29,0 km/h (5 Bft) 95,45 %
26.03.2017 15:02 10,8 C 42 % 1022,2 hPa 0,0 l/m 21,8 km/h (4 Bft) O-NO 74 2 min 0,000 mm 1,9 UV-I 649 W/m -1,6 C 3,8 C 32,2 km/h (5 Bft) 98,21 %
26.03.2017 15:04 10,8 C 37 % 1022,2 hPa 0,0 l/m 21,7 km/h (4 Bft) O-SO 107 2 min 0,000 mm 1,9 UV-I 647 W/m -3,3 C 3,8 C 32,2 km/h (5 Bft) 97,56 %
26.03.2017 15:06 10,8 C 36 % 1022,2 hPa 0,0 l/m 25,5 km/h (4 Bft) NO 53 2 min 0,000 mm 1,9 UV-I 645 W/m -3,7 C 2,8 C 35,4 km/h (5 Bft) 94,34 %
26.03.2017 15:08 10,7 C 38 % 1022,2 hPa 0,0 l/m 19,9 km/h (4 Bft) N-NO 32 2 min 0,000 mm 1,9 UV-I 640 W/m -3,0 C 4,2 C 25,7 km/h (4 Bft) 97,14 %
26.03.2017 15:10 10,7 C 39 % 1022,2 hPa 0,0 l/m 20,8 km/h (4 Bft) N-NO 30 2 min 0,000 mm 1,9 UV-I 635 W/m -2,7 C 3,9 C 30,6 km/h (5 Bft) 98,31 %
26.03.2017 15:12 10,7 C 41 % 1022,3 hPa 0,0 l/m 18,5 km/h (3 Bft) NO 53 2 min 0,000 mm 1,8 UV-I 631 W/m -2,0 C 4,7 C 25,7 km/h (4 Bft) 92,68 %
26.03.2017 15:14 10,7 C 40 % 1022,3 hPa 0,0 l/m 19,3 km/h (3 Bft) O 84 2 min 0,000 mm 1,8 UV-I 631 W/m -2,3 C 4,4 C 25,7 km/h (4 Bft) 94,34 %
26.03.2017 15:16 10,7 C 40 % 1022,3 hPa 0,0 l/m 19,0 km/h (3 Bft) O-NO 78 2 min 0,000 mm 1,8 UV-I 628 W/m -2,3 C 4,5 C 29,0 km/h (5 Bft) 95,12 %
26.03.2017 15:18 10,7 C 39 % 1022,3 hPa 0,0 l/m 18,9 km/h (3 Bft) O-NO 59 2 min 0,000 mm 1,8 UV-I 625 W/m -2,7 C 4,5 C 25,7 km/h (4 Bft) 100,00 %
26.03.2017 15:20 10,8 C 42 % 1022,3 hPa 0,0 l/m 16,7 km/h (3 Bft) O 79 2 min 0,000 mm 1,8 UV-I 618 W/m -1,6 C 5,4 C 27,4 km/h (4 Bft) 95,74 %
26.03.2017 15:22 10,9 C 42 % 1022,4 hPa 0,0 l/m 20,8 km/h (4 Bft) O-NO 68 2 min 0,000 mm 1,7 UV-I 614 W/m -1,5 C 4,2 C 35,4 km/h (5 Bft) 97,87 %
26.03.2017 15:24 10,9 C 39 % 1022,3 hPa 0,0 l/m 24,2 km/h (4 Bft) NO 38 2 min 0,000 mm 1,7 UV-I 611 W/m -2,5 C 3,3 C 32,2 km/h (5 Bft) 98,11 %
26.03.2017 15:26 10,8 C 39 % 1022,3 hPa 0,0 l/m 20,4 km/h (4 Bft) NO 55 2 min 0,000 mm 1,7 UV-I 606 W/m -2,6 C 4,2 C 27,4 km/h (4 Bft) 95,12 %
26.03.2017 15:28 10,9 C 44 % 1022,2 hPa 0,0 l/m 16,4 km/h (3 Bft) N-NO 18 2 min 0,000 mm 1,7 UV-I 599 W/m -0,9 C 5,7 C 22,5 km/h (4 Bft) 96,43 %
26.03.2017 15:30 11,0 C 43 % 1022,2 hPa 0,0 l/m 13,9 km/h (3 Bft) O-NO 59 2 min 0,000 mm 1,6 UV-I 593 W/m -1,1 C 6,8 C 20,9 km/h (4 Bft) 97,44 %
26.03.2017 15:32 11,1 C 42 % 1022,2 hPa 0,0 l/m 16,8 km/h (3 Bft) O-NO 60 2 min 0,000 mm 1,6 UV-I 590 W/m -1,3 C 5,8 C 24,1 km/h (4 Bft) 92,31 %
26.03.2017 15:34 11,1 C 39 % 1022,2 hPa 0,0 l/m 18,9 km/h (3 Bft) O-NO 59 2 min 0,000 mm 1,6 UV-I 588 W/m -2,3 C 5,1 C 27,4 km/h (4 Bft) 93,62 %
26.03.2017 15:36 11,0 C 39 % 1022,2 hPa 0,0 l/m 16,0 km/h (3 Bft) NO 51 2 min 0,000 mm 1,6 UV-I 585 W/m -2,4 C 6,0 C 22,5 km/h (4 Bft) 100,00 %
26.03.2017 15:38 11,1 C 41 % 1022,1 hPa 0,0 l/m 23,7 km/h (4 Bft) O-NO 69 2 min 0,000 mm 1,6 UV-I 580 W/m -1,6 C 3,7 C 33,8 km/h (5 Bft) 97,56 %
26.03.2017 15:40 11,0 C 38 % 1022,1 hPa 0,0 l/m 23,7 km/h (4 Bft) NO 46 2 min 0,000 mm 1,5 UV-I 576 W/m -2,8 C 3,5 C 32,2 km/h (5 Bft) 98,11 %
26.03.2017 15:42 10,9 C 40 % 1022,1 hPa 0,0 l/m 17,7 km/h (3 Bft) O-NO 69 2 min 0,000 mm 1,5 UV-I 572 W/m -2,2 C 5,2 C 20,9 km/h (4 Bft) 100,00 %
26.03.2017 15:44 11,0 C 40 % 1022,1 hPa 0,0 l/m 14,3 km/h (3 Bft) O-NO 67 2 min 0,000 mm 1,5 UV-I 568 W/m -2,1 C 6,6 C 25,7 km/h (4 Bft) 97,73 %
26.03.2017 15:46 11,1 C 40 % 1022,2 hPa 0,0 l/m 20,2 km/h (4 Bft) NO 53 2 min 0,000 mm 1,5 UV-I 563 W/m -2,0 C 4,6 C 25,7 km/h (4 Bft) 98,21 %
26.03.2017 15:48 10,9 C 39 % 1022,1 hPa 0,0 l/m 20,1 km/h (4 Bft) NO 39 2 min 0,000 mm 1,4 UV-I 559 W/m -2,5 C 4,4 C 25,7 km/h (4 Bft) 97,37 %
26.03.2017 15:50 10,9 C 44 % 1022,1 hPa 0,0 l/m 16,4 km/h (3 Bft) NO 34 2 min 0,000 mm 1,4 UV-I 556 W/m -0,9 C 5,7 C 24,1 km/h (4 Bft) 98,11 %
26.03.2017 15:52 11,1 C 44 % 1022,1 hPa 0,0 l/m 20,7 km/h (4 Bft) N 11 2 min 0,000 mm 1,4 UV-I 549 W/m -0,7 C 4,5 C 27,4 km/h (4 Bft) 96,00 %
26.03.2017 15:54 11,1 C 40 % 1022,1 hPa 0,0 l/m 18,1 km/h (3 Bft) N-NO 33 2 min 0,000 mm 1,4 UV-I 544 W/m -2,0 C 5,3 C 25,7 km/h (4 Bft) 100,00 %
26.03.2017 15:56 11,2 C 39 % 1022,2 hPa 0,0 l/m 19,4 km/h (3 Bft) O-NO 60 2 min 0,000 mm 1,4 UV-I 540 W/m -2,2 C 5,0 C 32,2 km/h (5 Bft) 98,00 %
26.03.2017 15:58 11,1 C 38 % 1022,2 hPa 0,0 l/m 19,2 km/h (3 Bft) O-NO 72 2 min 0,000 mm 1,3 UV-I 533 W/m -2,7 C 5,0 C 29,0 km/h (5 Bft) 98,11 %
26.03.2017 16:00 11,1 C 42 % 1022,1 hPa 0,0 l/m 15,0 km/h (3 Bft) NO 48 2 min 0,000 mm 1,3 UV-I 529 W/m -1,3 C 6,5 C 20,9 km/h (4 Bft) 93,62 %
26.03.2017 16:02 11,1 C 42 % 1022,2 hPa 0,0 l/m 17,2 km/h (3 Bft) NO 56 2 min 0,407 mm 1,3 UV-I 526 W/m -1,3 C 5,6 C 24,1 km/h (4 Bft) 100,00 %
26.03.2017 16:04 11,2 C 44 % 1022,2 hPa 0,0 l/m 17,9 km/h (3 Bft) N-NO 26 2 min 0,000 mm 1,3 UV-I 520 W/m -0,6 C 5,5 C 24,1 km/h (4 Bft) 100,00 %
26.03.2017 16:06 11,2 C 42 % 1022,2 hPa 0,0 l/m 18,7 km/h (3 Bft) NO 52 2 min 0,000 mm 1,3 UV-I 514 W/m -1,2 C 5,3 C 29,0 km/h (5 Bft) 97,87 %
26.03.2017 16:08 11,2 C 39 % 1022,3 hPa 0,0 l/m 19,6 km/h (3 Bft) O 80 2 min 0,000 mm 1,2 UV-I 510 W/m -2,2 C 5,0 C 25,7 km/h (4 Bft) 100,00 %
26.03.2017 16:10 11,1 C 39 % 1022,2 hPa 0,0 l/m 19,4 km/h (3 Bft) O-NO 71 2 min 0,000 mm 1,2 UV-I 502 W/m -2,3 C 4,9 C 24,1 km/h (4 Bft) 96,23 %
26.03.2017 16:12 11,0 C 40 % 1022,2 hPa 0,0 l/m 16,5 km/h (3 Bft) N-NO 19 2 min 0,000 mm 1,2 UV-I 498 W/m -2,1 C 5,8 C 22,5 km/h (4 Bft) 100,00 %
26.03.2017 16:14 11,1 C 41 % 1022,4 hPa 0,0 l/m 20,8 km/h (4 Bft) O-NO 63 2 min 0,000 mm 1,2 UV-I 492 W/m -1,6 C 4,5 C 27,4 km/h (4 Bft) 97,73 %
26.03.2017 16:16 11,1 C 40 % 1022,4 hPa 0,0 l/m 21,4 km/h (4 Bft) NO 45 2 min 0,000 mm 1,1 UV-I 487 W/m -2,0 C 4,3 C 30,6 km/h (5 Bft) 96,23 %
26.03.2017 16:18 11,1 C 39 % 1022,4 hPa 0,0 l/m 21,6 km/h (4 Bft) O-NO 66 2 min 0,000 mm 1,1 UV-I 482 W/m -2,3 C 4,2 C 29,0 km/h (5 Bft) 100,00 %
26.03.2017 16:20 11,0 C 39 % 1022,4 hPa 0,0 l/m 20,4 km/h (4 Bft) N-NO 16 2 min 0,000 mm 1,1 UV-I 477 W/m -2,4 C 4,5 C 25,7 km/h (4 Bft) 96,23 %
26.03.2017 16:23 11,0 C 41 % 1022,4 hPa 0,0 l/m 15,1 km/h (3 Bft) O-NO 59 3 min 0,000 mm 1,1 UV-I 470 W/m -1,7 C 6,3 C 25,7 km/h (4 Bft) 98,51 %
26.03.2017 16:24 11,0 C 41 % 1022,4 hPa 0,0 l/m 14,7 km/h (3 Bft) O-NO 70 1 min 0,000 mm 1,0 UV-I 464 W/m -1,7 C 6,5 C 19,3 km/h (3 Bft) 94,44 %
26.03.2017 16:26 11,1 C 41 % 1022,5 hPa 0,0 l/m 13,7 km/h (3 Bft) O-NO 58 2 min 0,000 mm 1,0 UV-I 459 W/m -1,6 C 7,0 C 20,9 km/h (4 Bft) 98,00 %
26.03.2017 16:28 11,2 C 39 % 1022,4 hPa 0,0 l/m 19,4 km/h (3 Bft) O-NO 65 2 min 0,000 mm 1,0 UV-I 454 W/m -2,2 C 5,0 C 27,4 km/h (4 Bft) 100,00 %
26.03.2017 16:30 11,1 C 39 % 1022,4 hPa 0,0 l/m 18,1 km/h (3 Bft) O-NO 65 2 min 0,000 mm 1,0 UV-I 450 W/m -2,3 C 5,3 C 30,6 km/h (5 Bft) 97,92 %
26.03.2017 16:32 11,1 C 40 % 1022,5 hPa 0,0 l/m 17,0 km/h (3 Bft) NO 48 2 min 0,000 mm 1,0 UV-I 443 W/m -2,0 C 5,7 C 22,5 km/h (4 Bft) 97,56 %
26.03.2017 16:34 11,1 C 39 % 1022,5 hPa 0,0 l/m 14,2 km/h (3 Bft) NO 44 2 min 0,000 mm 1,0 UV-I 439 W/m -2,3 C 6,8 C 19,3 km/h (3 Bft) 97,56 %
26.03.2017 16:36 11,1 C 40 % 1022,4 hPa 0,0 l/m 16,1 km/h (3 Bft) NO 54 2 min 0,000 mm 0,9 UV-I 431 W/m -2,0 C 6,0 C 22,5 km/h (4 Bft) 95,74 %
26.03.2017 16:38 11,2 C 43 % 1022,5 hPa 0,0 l/m 14,7 km/h (3 Bft) N-NO 18 2 min 0,000 mm 0,9 UV-I 426 W/m -0,9 C 6,7 C 24,1 km/h (4 Bft) 98,21 %
26.03.2017 16:40 11,1 C 41 % 1022,3 hPa 0,0 l/m 17,1 km/h (3 Bft) NO 54 2 min 0,000 mm 0,9 UV-I 422 W/m -1,6 C 5,7 C 20,9 km/h (4 Bft) 96,00 %
26.03.2017 16:42 11,1 C 39 % 1022,4 hPa 0,0 l/m 17,0 km/h (3 Bft) O-NO 58 2 min 0,000 mm 0,9 UV-I 416 W/m -2,3 C 5,7 C 24,1 km/h (4 Bft) 97,37 %
26.03.2017 16:44 11,1 C 40 % 1022,4 hPa 0,0 l/m 16,4 km/h (3 Bft) N-NO 28 2 min 0,000 mm 0,9 UV-I 410 W/m -2,0 C 5,9 C 25,7 km/h (4 Bft) 98,00 %
26.03.2017 16:46 11,2 C 43 % 1022,3 hPa 0,0 l/m 14,4 km/h (3 Bft) NO 53 2 min 0,000 mm 0,8 UV-I 404 W/m -0,9 C 6,8 C 20,9 km/h (4 Bft) 96,23 %
26.03.2017 16:48 11,2 C 41 % 1022,3 hPa 0,0 l/m 15,7 km/h (3 Bft) N-NO 31 2 min 0,000 mm 0,8 UV-I 400 W/m -1,6 C 6,3 C 20,9 km/h (4 Bft) 88,89 %
26.03.2017 16:50 11,2 C 44 % 1022,3 hPa 0,0 l/m 14,6 km/h (3 Bft) O-NO 61 2 min 0,000 mm 0,8 UV-I 395 W/m -0,6 C 6,7 C 20,9 km/h (4 Bft) 94,00 %
26.03.2017 16:52 11,2 C 38 % 1022,4 hPa 0,0 l/m 16,0 km/h (3 Bft) O-NO 74 2 min 0,000 mm 0,8 UV-I 388 W/m -2,6 C 6,2 C 25,7 km/h (4 Bft) 97,87 %
26.03.2017 16:54 11,1 C 38 % 1022,3 hPa 0,0 l/m 17,4 km/h (3 Bft) NO 55 2 min 0,000 mm 0,7 UV-I 383 W/m -2,7 C 5,6 C 24,1 km/h (4 Bft) 95,45 %
26.03.2017 16:56 11,0 C 38 % 1022,3 hPa 0,0 l/m 14,5 km/h (3 Bft) O-NO 66 2 min 0,000 mm 0,7 UV-I 377 W/m -2,8 C 6,5 C 22,5 km/h (4 Bft) 96,23 %
26.03.2017 16:58 11,0 C 38 % 1022,3 hPa 0,0 l/m 16,7 km/h (3 Bft) O-NO 57 2 min 0,000 mm 0,7 UV-I 372 W/m -2,8 C 5,7 C 27,4 km/h (4 Bft) 92,11 %
26.03.2017 17:00 10,9 C 38 % 1022,4 hPa 0,0 l/m 18,5 km/h (3 Bft) O-NO 64 2 min 0,330 mm 0,7 UV-I 366 W/m -2,8 C 4,9 C 25,7 km/h (4 Bft) 90,57 %
26.03.2017 17:02 10,9 C 40 % 1022,4 hPa 0,0 l/m 17,3 km/h (3 Bft) O-NO 65 2 min 0,000 mm 0,7 UV-I 359 W/m -2,2 C 5,4 C 29,0 km/h (5 Bft) 98,11 %
26.03.2017 17:04 10,9 C 39 % 1022,4 hPa 0,0 l/m 24,0 km/h (4 Bft) O-NO 69 2 min 0,000 mm 0,7 UV-I 354 W/m -2,5 C 3,3 C 33,8 km/h (5 Bft) 97,37 %
26.03.2017 17:06 10,9 C 40 % 1022,4 hPa 0,0 l/m 22,2 km/h (4 Bft) O-NO 78 2 min 0,000 mm 0,6 UV-I 348 W/m -2,2 C 3,8 C 29,0 km/h (5 Bft) 96,23 %
26.03.2017 17:08 10,9 C 40 % 1022,4 hPa 0,0 l/m 16,1 km/h (3 Bft) N-NO 21 2 min 0,000 mm 0,6 UV-I 342 W/m -2,2 C 5,8 C 22,5 km/h (4 Bft) 98,00 %
26.03.2017 17:10 10,9 C 39 % 1022,4 hPa 0,0 l/m 17,0 km/h (3 Bft) O-NO 74 2 min 0,000 mm 0,6 UV-I 336 W/m -2,5 C 5,5 C 24,1 km/h (4 Bft) 95,12 %
26.03.2017 17:12 10,9 C 39 % 1022,5 hPa 0,0 l/m 19,3 km/h (3 Bft) O 81 2 min 0,000 mm 0,6 UV-I 330 W/m -2,5 C 4,7 C 25,7 km/h (4 Bft) 96,23 %
26.03.2017 17:14 10,9 C 40 % 1022,5 hPa 0,0 l/m 19,1 km/h (3 Bft) O 82 2 min 0,000 mm 0,6 UV-I 324 W/m -2,2 C 4,7 C 27,4 km/h (4 Bft) 100,00 %
26.03.2017 17:16 10,9 C 39 % 1022,5 hPa 0,0 l/m 22,3 km/h (4 Bft) O-NO 62 2 min 0,000 mm 0,5 UV-I 317 W/m -2,5 C 3,8 C 32,2 km/h (5 Bft) 98,00 %
26.03.2017 17:18 10,8 C 39 % 1022,5 hPa 0,0 l/m 20,8 km/h (4 Bft) NO 47 2 min 0,000 mm 0,5 UV-I 312 W/m -2,6 C 4,1 C 25,7 km/h (4 Bft) 96,00 %
26.03.2017 17:20 10,8 C 38 % 1022,5 hPa 0,0 l/m 21,2 km/h (4 Bft) O 82 2 min 0,000 mm 0,5 UV-I 305 W/m -2,9 C 4,0 C 27,4 km/h (4 Bft) 100,00 %
26.03.2017 17:22 10,8 C 40 % 1022,5 hPa 0,0 l/m 16,4 km/h (3 Bft) NO 50 2 min 0,000 mm 0,5 UV-I 299 W/m -2,2 C 5,6 C 19,3 km/h (3 Bft) 95,74 %
26.03.2017 17:24 10,8 C 40 % 1022,5 hPa 0,0 l/m 15,6 km/h (3 Bft) O-NO 63 2 min 0,000 mm 0,5 UV-I 293 W/m -2,2 C 5,9 C 24,1 km/h (4 Bft) 92,45 %
26.03.2017 17:26 10,8 C 40 % 1022,4 hPa 0,0 l/m 18,7 km/h (3 Bft) O-NO 61 2 min 0,000 mm 0,5 UV-I 286 W/m -2,2 C 4,7 C 27,4 km/h (4 Bft) 97,44 %
26.03.2017 17:28 10,8 C 39 % 1022,4 hPa 0,0 l/m 22,9 km/h (4 Bft) O-NO 70 2 min 0,000 mm 0,2 UV-I 281 W/m -2,6 C 3,5 C 29,0 km/h (5 Bft) 100,00 %
26.03.2017 17:30 10,7 C 38 % 1022,5 hPa 0,0 l/m 21,1 km/h (4 Bft) O-NO 68 2 min 0,000 mm 0,0 UV-I 276 W/m -3,0 C 3,9 C 29,0 km/h (5 Bft) 97,62 %
26.03.2017 17:32 10,6 C 38 % 1022,5 hPa 0,0 l/m 18,0 km/h (3 Bft) O-NO 72 2 min 0,000 mm 0,0 UV-I 266 W/m -3,1 C 4,7 C 27,4 km/h (4 Bft) 94,55 %
26.03.2017 17:34 10,7 C 39 % 1022,4 hPa 0,0 l/m 15,6 km/h (3 Bft) O 92 2 min 0,000 mm 0,0 UV-I 265 W/m -2,7 C 5,7 C 19,3 km/h (3 Bft) 100,00 %
26.03.2017 17:36 10,6 C 38 % 1022,4 hPa 0,0 l/m 20,4 km/h (4 Bft) O-NO 72 2 min 0,000 mm 0,0 UV-I 259 W/m -3,1 C 3,9 C 30,6 km/h (5 Bft) 97,87 %
26.03.2017 17:38 10,6 C 39 % 1022,4 hPa 0,0 l/m 15,2 km/h (3 Bft) O-NO 63 2 min 0,000 mm 0,0 UV-I 249 W/m -2,8 C 5,8 C 24,1 km/h (4 Bft) 100,00 %
26.03.2017 17:40 10,6 C 40 % 1022,4 hPa 0,0 l/m 18,7 km/h (3 Bft) O-NO 78 2 min 0,000 mm 0,0 UV-I 243 W/m -2,4 C 4,5 C 25,7 km/h (4 Bft) 94,64 %
26.03.2017 17:42 10,6 C 39 % 1022,4 hPa 0,0 l/m 20,2 km/h (4 Bft) O-NO 76 2 min 0,000 mm 0,0 UV-I 242 W/m -2,8 C 4,0 C 29,0 km/h (5 Bft) 95,12 %
26.03.2017 17:44 10,4 C 38 % 1022,4 hPa 0,0 l/m 23,1 km/h (4 Bft) O 88 2 min 0,000 mm 0,0 UV-I 236 W/m -3,3 C 2,9 C 27,4 km/h (4 Bft) 97,37 %
26.03.2017 17:46 10,3 C 39 % 1022,4 hPa 0,0 l/m 17,7 km/h (3 Bft) O-NO 78 2 min 0,000 mm 0,0 UV-I 230 W/m -3,0 C 4,5 C 29,0 km/h (5 Bft) 98,11 %
26.03.2017 17:48 10,3 C 40 % 1022,4 hPa 0,0 l/m 17,8 km/h (3 Bft) O 91 2 min 0,000 mm 0,0 UV-I 221 W/m -2,7 C 4,4 C 22,5 km/h (4 Bft) 92,86 %
26.03.2017 17:50 10,3 C 39 % 1022,4 hPa 0,0 l/m 16,8 km/h (3 Bft) NO 54 2 min 0,000 mm 0,0 UV-I 166 W/m -3,0 C 4,8 C 27,4 km/h (4 Bft) 93,18 %
26.03.2017 17:53 10,2 C 39 % 1022,4 hPa 0,0 l/m 19,5 km/h (3 Bft) O 92 3 min 0,000 mm 0,0 UV-I 211 W/m -3,1 C 3,7 C 27,4 km/h (4 Bft) 97,06 %
26.03.2017 17:54 10,2 C 37 % 1022,4 hPa 0,0 l/m 18,5 km/h (3 Bft) O-NO 61 1 min 0,000 mm 0,0 UV-I 206 W/m -3,8 C 4,0 C 24,1 km/h (4 Bft) 96,55 %
26.03.2017 17:56 10,2 C 37 % 1022,4 hPa 0,0 l/m 13,2 km/h (3 Bft) O-SO 108 2 min 0,000 mm 0,0 UV-I 200 W/m -3,8 C 6,2 C 17,7 km/h (3 Bft) 97,56 %
26.03.2017 17:58 10,2 C 39 % 1022,4 hPa 0,0 l/m 9,5 km/h (2 Bft) O-NO 78 2 min 0,000 mm 0,0 UV-I 194 W/m -3,1 C 8,1 C 14,5 km/h (3 Bft) 97,73 %
26.03.2017 18:00 10,1 C 37 % 1022,4 hPa 0,0 l/m 11,4 km/h (2 Bft) O-NO 69 2 min 0,254 mm 0,0 UV-I 189 W/m -3,9 C 6,9 C 19,3 km/h (3 Bft) 92,45 %
26.03.2017 18:02 10,1 C 38 % 1022,5 hPa 0,0 l/m 12,5 km/h (3 Bft) O-NO 78 2 min 0,000 mm 0,0 UV-I 183 W/m -3,6 C 6,4 C 16,1 km/h (3 Bft) 94,00 %
26.03.2017 18:04 10,2 C 39 % 1022,5 hPa 0,0 l/m 12,8 km/h (3 Bft) O 97 2 min 0,000 mm 0,0 UV-I 179 W/m -3,1 C 6,4 C 19,3 km/h (3 Bft) 95,12 %
26.03.2017 18:06 10,2 C 39 % 1022,5 hPa 0,0 l/m 13,0 km/h (3 Bft) O-NO 71 2 min 0,000 mm 0,0 UV-I 173 W/m -3,1 C 6,3 C 17,7 km/h (3 Bft) 95,74 %
26.03.2017 18:08 10,2 C 40 % 1022,5 hPa 0,0 l/m 13,4 km/h (3 Bft) O 98 2 min 0,000 mm 0,0 UV-I 159 W/m -2,8 C 6,1 C 17,7 km/h (3 Bft) 98,11 %
26.03.2017 18:10 10,1 C 39 % 1022,5 hPa 0,0 l/m 15,2 km/h (3 Bft) O 86 2 min 0,000 mm 0,0 UV-I 137 W/m -3,2 C 5,2 C 20,9 km/h (4 Bft) 100,00 %
26.03.2017 18:12 10,1 C 39 % 1022,5 hPa 0,0 l/m 13,2 km/h (3 Bft) O-NO 75 2 min 0,000 mm 0,0 UV-I 156 W/m -3,2 C 6,0 C 19,3 km/h (3 Bft) 100,00 %
26.03.2017 18:14 9,9 C 39 % 1022,5 hPa 0,0 l/m 15,9 km/h (3 Bft) O-SO 104 2 min 0,000 mm 0,0 UV-I 137 W/m -3,4 C 4,6 C 22,5 km/h (4 Bft) 93,18 %
26.03.2017 18:16 9,9 C 40 % 1022,6 hPa 0,0 l/m 9,9 km/h (2 Bft) O-NO 61 2 min 0,000 mm 0,0 UV-I 134 W/m -3,1 C 7,5 C 16,1 km/h (3 Bft) 100,00 %
26.03.2017 18:18 9,8 C 41 % 1022,6 hPa 0,0 l/m 11,9 km/h (2 Bft) O-NO 61 2 min 0,000 mm 0,0 UV-I 141 W/m -2,8 C 6,3 C 17,7 km/h (3 Bft) 96,23 %
26.03.2017 18:20 9,8 C 40 % 1022,6 hPa 0,0 l/m 12,2 km/h (2 Bft) O 97 2 min 0,000 mm 0,0 UV-I 135 W/m -3,1 C 6,2 C 22,5 km/h (4 Bft) 100,00 %
26.03.2017 18:22 9,8 C 41 % 1022,6 hPa 0,0 l/m 14,0 km/h (3 Bft) S-SO 155 2 min 0,000 mm 0,0 UV-I 131 W/m -2,8 C 5,3 C 19,3 km/h (3 Bft) 92,45 %
26.03.2017 18:24 9,7 C 40 % 1022,6 hPa 0,0 l/m 11,6 km/h (2 Bft) O-NO 68 2 min 0,000 mm 0,0 UV-I 126 W/m -3,2 C 6,4 C 16,1 km/h (3 Bft) 92,68 %
26.03.2017 18:26 9,7 C 41 % 1022,6 hPa 0,0 l/m 12,7 km/h (3 Bft) NO 48 2 min 0,000 mm 0,0 UV-I 120 W/m -2,9 C 5,8 C 22,5 km/h (4 Bft) 97,73 %
26.03.2017 18:28 9,7 C 41 % 1022,6 hPa 0,0 l/m 10,7 km/h (2 Bft) O-NO 68 2 min 0,000 mm 0,0 UV-I 100 W/m -2,9 C 6,9 C 14,5 km/h (3 Bft) 98,21 %
26.03.2017 18:30 9,7 C 43 % 1022,7 hPa 0,0 l/m 12,0 km/h (2 Bft) NO 55 2 min 0,000 mm 0,0 UV-I 108 W/m -2,3 C 6,2 C 19,3 km/h (3 Bft) 93,62 %
26.03.2017 18:32 9,6 C 43 % 1022,6 hPa 0,0 l/m 10,0 km/h (2 Bft) O-NO 77 2 min 0,000 mm 0,0 UV-I 106 W/m -2,4 C 7,2 C 16,1 km/h (3 Bft) 89,36 %
26.03.2017 18:34 9,5 C 41 % 1022,7 hPa 0,0 l/m 11,9 km/h (2 Bft) O-SO 110 2 min 0,000 mm 0,0 UV-I 101 W/m -3,1 C 6,0 C 16,1 km/h (3 Bft) 97,37 %
26.03.2017 18:36 9,4 C 42 % 1022,7 hPa 0,0 l/m 12,4 km/h (3 Bft) O-NO 74 2 min 0,000 mm 0,0 UV-I 96 W/m -2,8 C 5,6 C 16,1 km/h (3 Bft) 94,64 %
26.03.2017 18:38 9,4 C 42 % 1022,7 hPa 0,0 l/m 9,5 km/h (2 Bft) O 82 2 min 0,000 mm 0,0 UV-I 89 W/m -2,8 C 7,2 C 14,5 km/h (3 Bft) 94,74 %
26.03.2017 18:40 9,3 C 42 % 1022,7 hPa 0,0 l/m 12,3 km/h (3 Bft) O 84 2 min 0,000 mm 0,0 UV-I 83 W/m -2,9 C 5,6 C 20,9 km/h (4 Bft) 91,07 %
26.03.2017 18:42 9,2 C 43 % 1022,6 hPa 0,0 l/m 13,2 km/h (3 Bft) O-SO 105 2 min 0,000 mm 0,0 UV-I 76 W/m -2,7 C 5,0 C 25,7 km/h (4 Bft) 100,00 %
26.03.2017 18:44 9,2 C 42 % 1022,6 hPa 0,0 l/m 12,2 km/h (2 Bft) O-SO 119 2 min 0,000 mm 0,0 UV-I 72 W/m -3,0 C 5,5 C 20,9 km/h (4 Bft) 94,34 %
26.03.2017 18:46 9,1 C 44 % 1022,6 hPa 0,0 l/m 9,9 km/h (2 Bft) O 90 2 min 0,000 mm 0,0 UV-I 69 W/m -2,5 C 6,7 C 14,5 km/h (3 Bft) 95,83 %
26.03.2017 18:48 9,1 C 43 % 1022,7 hPa 0,0 l/m 12,8 km/h (3 Bft) O 80 2 min 0,000 mm 0,0 UV-I 65 W/m -2,8 C 5,1 C 20,9 km/h (4 Bft) 94,03 %
26.03.2017 18:50 9,0 C 43 % 1022,6 hPa 0,0 l/m 11,9 km/h (2 Bft) O-NO 69 2 min 0,000 mm 0,0 UV-I 61 W/m -2,9 C 5,4 C 19,3 km/h (3 Bft) 92,86 %
26.03.2017 18:52 8,9 C 43 % 1022,7 hPa 0,0 l/m 11,8 km/h (2 Bft) O-SO 105 2 min 0,000 mm 0,0 UV-I 57 W/m -3,0 C 5,4 C 20,9 km/h (4 Bft) 98,11 %
26.03.2017 18:54 8,9 C 44 % 1022,7 hPa 0,0 l/m 13,8 km/h (3 Bft) O-NO 58 2 min 0,000 mm 0,0 UV-I 51 W/m -2,7 C 4,3 C 19,3 km/h (3 Bft) 95,45 %
26.03.2017 18:56 8,9 C 44 % 1022,7 hPa 0,0 l/m 12,0 km/h (2 Bft) O 93 2 min 0,000 mm 0,0 UV-I 47 W/m -2,7 C 5,2 C 16,1 km/h (3 Bft) 92,45 %
26.03.2017 18:58 8,8 C 45 % 1022,7 hPa 0,0 l/m 9,4 km/h (2 Bft) O 91 2 min 0,000 mm 0,0 UV-I 43 W/m -2,5 C 6,6 C 16,1 km/h (3 Bft) 89,47 %
26.03.2017 19:00 8,7 C 45 % 1022,8 hPa 0,0 l/m 8,8 km/h (2 Bft) O-NO 74 2 min 0,000 mm 0,0 UV-I 39 W/m -2,6 C 6,9 C 14,5 km/h (3 Bft) 93,62 %
26.03.2017 19:02 8,7 C 45 % 1022,8 hPa 0,0 l/m 13,4 km/h (3 Bft) O 84 2 min 0,127 mm 0,0 UV-I 37 W/m -2,6 C 4,3 C 20,9 km/h (4 Bft) 90,91 %
26.03.2017 19:04 8,7 C 44 % 1022,8 hPa 0,0 l/m 15,6 km/h (3 Bft) O 85 2 min 0,000 mm 0,0 UV-I 34 W/m -2,9 C 3,3 C 24,1 km/h (4 Bft) 94,34 %
26.03.2017 19:06 8,6 C 45 % 1022,8 hPa 0,0 l/m 10,3 km/h (2 Bft) O-NO 66 2 min 0,000 mm 0,0 UV-I 30 W/m -2,6 C 5,9 C 17,7 km/h (3 Bft) 100,00 %
26.03.2017 19:08 8,5 C 45 % 1022,9 hPa 0,0 l/m 10,8 km/h (2 Bft) O-NO 61 2 min 0,000 mm 0,0 UV-I 27 W/m -2,7 C 5,5 C 17,7 km/h (3 Bft) 96,00 %
26.03.2017 19:10 8,5 C 45 % 1022,9 hPa 0,0 l/m 13,1 km/h (3 Bft) O 82 2 min 0,000 mm 0,0 UV-I 25 W/m -2,7 C 4,2 C 19,3 km/h (3 Bft) 96,23 %
26.03.2017 19:12 8,4 C 46 % 1022,9 hPa 0,0 l/m 11,0 km/h (2 Bft) O 80 2 min 0,000 mm 0,0 UV-I 21 W/m -2,5 C 5,2 C 16,1 km/h (3 Bft) 95,12 %
26.03.2017 19:14 8,3 C 46 % 1022,9 hPa 0,0 l/m 10,1 km/h (2 Bft) O 97 2 min 0,000 mm 0,0 UV-I 19 W/m -2,6 C 5,7 C 14,5 km/h (3 Bft) 97,87 %
26.03.2017 19:16 8,3 C 46 % 1023,0 hPa 0,0 l/m 11,8 km/h (2 Bft) O-SO 110 0 min 0,000 mm 0,0 UV-I 17 W/m -2,6 C 4,7 C 19,3 km/h (3 Bft) 96,30 %
26.03.2017 19:18 8,2 C 46 % 1023,0 hPa 0,0 l/m 8,4 km/h (2 Bft) O 100 0 min 0,000 mm 0,0 UV-I 14 W/m -2,7 C 6,7 C 12,9 km/h (3 Bft) 98,28 %
26.03.2017 19:20 8,2 C 46 % 1023,0 hPa 0,0 l/m 12,0 km/h (2 Bft) O 101 0 min 0,000 mm 0,0 UV-I 12 W/m -2,7 C 4,4 C 17,7 km/h (3 Bft) 98,31 %
26.03.2017 19:22 8,1 C 46 % 1023,1 hPa 0,0 l/m 11,3 km/h (2 Bft) O-SO 119 0 min 0,000 mm 0,0 UV-I 11 W/m -2,8 C 4,7 C 16,1 km/h (3 Bft) 100,00 %
26.03.2017 19:24 8,1 C 46 % 1023,1 hPa 0,0 l/m 10,1 km/h (2 Bft) O-NO 71 0 min 0,000 mm 0,0 UV-I 10 W/m -2,8 C 5,4 C 14,5 km/h (3 Bft) 100,00 %
26.03.2017 19:26 8,1 C 46 % 1023,2 hPa 0,0 l/m 11,2 km/h (2 Bft) O 86 0 min 0,000 mm 0,0 UV-I 9 W/m -2,8 C 4,8 C 14,5 km/h (3 Bft) 93,18 %
26.03.2017 19:28 7,9 C 47 % 1023,2 hPa 0,0 l/m 7,8 km/h (2 Bft) O-NO 78 0 min 0,000 mm 0,0 UV-I 7 W/m -2,7 C 6,8 C 12,9 km/h (3 Bft) 95,24 %
26.03.2017 19:30 7,9 C 46 % 1023,2 hPa 0,0 l/m 10,7 km/h (2 Bft) O 94 0 min 0,000 mm 0,0 UV-I 7 W/m -3,0 C 4,8 C 17,7 km/h (3 Bft) 94,34 %
26.03.2017 19:32 7,8 C 47 % 1023,2 hPa 0,0 l/m 10,3 km/h (2 Bft) O 79 0 min 0,000 mm 0,0 UV-I 6 W/m -2,8 C 5,0 C 14,5 km/h (3 Bft) 96,00 %
26.03.2017 19:34 7,8 C 47 % 1023,2 hPa 0,0 l/m 8,5 km/h (2 Bft) O-NO 74 0 min 0,000 mm 0,0 UV-I 5 W/m -2,8 C 6,2 C 12,9 km/h (3 Bft) 91,43 %
26.03.2017 19:36 7,7 C 48 % 1023,2 hPa 0,0 l/m 12,6 km/h (3 Bft) O 80 0 min 0,000 mm 0,0 UV-I 5 W/m -2,6 C 3,5 C 17,7 km/h (3 Bft) 97,73 %
26.03.2017 19:38 7,6 C 49 % 1023,3 hPa 0,0 l/m 10,5 km/h (2 Bft) O-SO 111 0 min 0,000 mm 0,0 UV-I 5 W/m -2,4 C 4,6 C 16,1 km/h (3 Bft) 96,23 %
26.03.2017 19:40 7,6 C 48 % 1023,3 hPa 0,0 l/m 11,2 km/h (2 Bft) O 97 0 min 0,000 mm 0,0 UV-I 3 W/m -2,7 C 4,2 C 14,5 km/h (3 Bft) 98,00 %
26.03.2017 19:42 7,6 C 48 % 1023,3 hPa 0,0 l/m 8,0 km/h (2 Bft) O-NO 78 0 min 0,000 mm 0,0 UV-I 0 W/m -2,7 C 6,3 C 12,9 km/h (3 Bft) 92,68 %
26.03.2017 19:44 7,5 C 48 % 1023,3 hPa 0,0 l/m 10,5 km/h (2 Bft) O-NO 74 0 min 0,000 mm 0,0 UV-I 0 W/m -2,8 C 4,5 C 16,1 km/h (3 Bft) 94,00 %
26.03.2017 19:46 7,5 C 49 % 1023,3 hPa 0,0 l/m 10,4 km/h (2 Bft) O-NO 66 0 min 0,000 mm 0,0 UV-I 0 W/m -2,5 C 4,6 C 16,1 km/h (3 Bft) 95,74 %
26.03.2017 19:48 7,4 C 48 % 1023,3 hPa 0,0 l/m 11,9 km/h (2 Bft) O 80 0 min 0,000 mm 0,0 UV-I 0 W/m -2,9 C 3,6 C 16,1 km/h (3 Bft) 94,34 %
26.03.2017 19:50 7,4 C 49 % 1023,3 hPa 0,0 l/m 10,0 km/h (2 Bft) O 80 0 min 0,000 mm 0,0 UV-I 0 W/m -2,6 C 4,7 C 14,5 km/h (3 Bft) 97,73 %
26.03.2017 19:52 7,3 C 50 % 1023,3 hPa 0,0 l/m 9,1 km/h (2 Bft) O-NO 71 0 min 0,000 mm 0,0 UV-I 0 W/m -2,4 C 5,2 C 12,9 km/h (3 Bft) 92,68 %
26.03.2017 19:54 7,2 C 50 % 1023,4 hPa 0,0 l/m 9,6 km/h (2 Bft) O 92 0 min 0,000 mm 0,0 UV-I 0 W/m -2,5 C 4,8 C 16,1 km/h (3 Bft) 94,34 %
26.03.2017 19:56 7,2 C 49 % 1023,4 hPa 0,0 l/m 12,1 km/h (2 Bft) O 93 0 min 0,000 mm 0,0 UV-I 0 W/m -2,8 C 3,2 C 19,3 km/h (3 Bft) 92,00 %
26.03.2017 19:58 7,2 C 50 % 1023,4 hPa 0,0 l/m 10,7 km/h (2 Bft) O 79 0 min 0,000 mm 0,0 UV-I 0 W/m -2,5 C 4,1 C 17,7 km/h (3 Bft) 97,14 %
26.03.2017 20:00 7,2 C 48 % 1023,4 hPa 0,0 l/m 12,8 km/h (3 Bft) O-NO 67 0 min 0,076 mm 0,0 UV-I 0 W/m -3,1 C 2,8 C 19,3 km/h (3 Bft) 96,23 %
26.03.2017 20:02 7,2 C 48 % 1023,4 hPa 0,0 l/m 11,9 km/h (2 Bft) O-NO 78 0 min 0,000 mm 0,0 UV-I 0 W/m -3,1 C 3,3 C 20,9 km/h (4 Bft) 98,00 %
26.03.2017 20:04 7,2 C 49 % 1023,4 hPa 0,0 l/m 11,4 km/h (2 Bft) O 81 0 min 0,000 mm 0,0 UV-I 0 W/m -2,8 C 3,6 C 17,7 km/h (3 Bft) 95,45 %
26.03.2017 20:06 7,2 C 49 % 1023,4 hPa 0,0 l/m 10,4 km/h (2 Bft) O 80 0 min 0,000 mm 0,0 UV-I 0 W/m -2,8 C 4,2 C 17,7 km/h (3 Bft) 95,24 %
26.03.2017 20:08 7,1 C 50 % 1023,4 hPa 0,0 l/m 10,7 km/h (2 Bft) O-NO 68 0 min 0,000 mm 0,0 UV-I 0 W/m -2,6 C 3,9 C 16,1 km/h (3 Bft) 94,55 %
26.03.2017 20:10 7,0 C 50 % 1023,4 hPa 0,0 l/m 10,0 km/h (2 Bft) O 84 0 min 0,000 mm 0,0 UV-I 0 W/m -2,7 C 4,3 C 14,5 km/h (3 Bft) 100,00 %
26.03.2017 20:12 6,9 C 50 % 1023,4 hPa 0,0 l/m 8,9 km/h (2 Bft) O-NO 69 0 min 0,000 mm 0,0 UV-I 0 W/m -2,8 C 4,9 C 17,7 km/h (3 Bft) 96,43 %
26.03.2017 20:14 6,8 C 51 % 1023,4 hPa 0,0 l/m 9,0 km/h (2 Bft) O-NO 77 0 min 0,000 mm 0,0 UV-I 0 W/m -2,6 C 4,7 C 12,9 km/h (3 Bft) 97,37 %
26.03.2017 20:16 6,8 C 51 % 1023,5 hPa 0,0 l/m 9,1 km/h (2 Bft) O-NO 69 0 min 0,000 mm 0,0 UV-I 0 W/m -2,6 C 4,7 C 16,1 km/h (3 Bft) 96,43 %
26.03.2017 20:18 6,7 C 51 % 1023,6 hPa 0,0 l/m 7,7 km/h (2 Bft) O-NO 72 0 min 0,000 mm 0,0 UV-I 0 W/m -2,7 C 5,6 C 12,9 km/h (3 Bft) 94,74 %
26.03.2017 20:20 6,7 C 52 % 1023,5 hPa 0,0 l/m 9,1 km/h (2 Bft) O-NO 69 0 min 0,000 mm 0,0 UV-I 0 W/m -2,4 C 4,6 C 12,9 km/h (3 Bft) 94,34 %
26.03.2017 20:22 6,7 C 52 % 1023,6 hPa 0,0 l/m 8,6 km/h (2 Bft) O-NO 74 0 min 0,000 mm 0,0 UV-I 0 W/m -2,4 C 4,9 C 12,9 km/h (3 Bft) 90,91 %
26.03.2017 20:24 6,6 C 52 % 1023,6 hPa 0,0 l/m 10,2 km/h (2 Bft) O-NO 74 0 min 0,000 mm 0,0 UV-I 0 W/m -2,5 C 3,7 C 12,9 km/h (3 Bft) 92,68 %
26.03.2017 20:26 6,5 C 53 % 1023,6 hPa 0,0 l/m 8,8 km/h (2 Bft) O-NO 69 0 min 0,000 mm 0,0 UV-I 0 W/m -2,4 C 4,6 C 12,9 km/h (3 Bft) 96,23 %
26.03.2017 20:28 6,4 C 53 % 1023,6 hPa 0,0 l/m 7,5 km/h (2 Bft) O 87 0 min 0,000 mm 0,0 UV-I 0 W/m -2,5 C 5,5 C 12,9 km/h (3 Bft) 96,00 %
26.03.2017 20:30 6,4 C 53 % 1023,6 hPa 0,0 l/m 8,9 km/h (2 Bft) O 82 0 min 0,000 mm 0,0 UV-I 0 W/m -2,5 C 4,4 C 12,9 km/h (3 Bft) 95,74 %
26.03.2017 20:32 6,3 C 53 % 1023,7 hPa 0,0 l/m 7,9 km/h (2 Bft) O-NO 73 0 min 0,000 mm 0,0 UV-I 0 W/m -2,6 C 5,0 C 11,3 km/h (2 Bft) 95,74 %
26.03.2017 20:34 6,3 C 53 % 1023,7 hPa 0,0 l/m 7,6 km/h (2 Bft) O-NO 76 0 min 0,000 mm 0,0 UV-I 0 W/m -2,6 C 5,3 C 11,3 km/h (2 Bft) 95,45 %
26.03.2017 20:36 6,2 C 53 % 1023,7 hPa 0,0 l/m 7,6 km/h (2 Bft) O-NO 72 0 min 0,000 mm 0,0 UV-I 0 W/m -2,7 C 5,2 C 11,3 km/h (2 Bft) 97,37 %
26.03.2017 20:38 6,2 C 53 % 1023,7 hPa 0,0 l/m 7,9 km/h (2 Bft) O 80 0 min 0,000 mm 0,0 UV-I 0 W/m -2,7 C 4,9 C 11,3 km/h (2 Bft) 94,34 %
26.03.2017 20:40 6,2 C 53 % 1023,7 hPa 0,0 l/m 7,7 km/h (2 Bft) O-NO 74 0 min 0,000 mm 0,0 UV-I 0 W/m -2,7 C 5,1 C 11,3 km/h (2 Bft) 93,18 %
26.03.2017 20:42 6,1 C 53 % 1023,8 hPa 0,0 l/m 7,7 km/h (2 Bft) O-NO 78 0 min 0,000 mm 0,0 UV-I 0 W/m -2,7 C 5,0 C 11,3 km/h (2 Bft) 96,23 %
26.03.2017 20:44 6,1 C 53 % 1023,8 hPa 0,0 l/m 7,6 km/h (2 Bft) O-NO 66 0 min 0,000 mm 0,0 UV-I 0 W/m -2,7 C 5,1 C 11,3 km/h (2 Bft) 89,74 %
26.03.2017 20:46 6,1 C 53 % 1023,8 hPa 0,0 l/m 6,5 km/h (2 Bft) O-NO 78 0 min 0,000 mm 0,0 UV-I 0 W/m -2,7 C 6,0 C 8,0 km/h (2 Bft) 91,38 %
26.03.2017 20:48 6,1 C 52 % 1023,8 hPa 0,0 l/m 8,7 km/h (2 Bft) O 85 0 min 0,000 mm 0,0 UV-I 0 W/m -3,0 C 4,2 C 12,9 km/h (3 Bft) 97,44 %
26.03.2017 20:50 6,1 C 51 % 1024,0 hPa 0,0 l/m 6,1 km/h (2 Bft) O-NO 76 0 min 0,000 mm 0,0 UV-I 0 W/m -3,3 C 6,1 C 8,0 km/h (2 Bft) 94,23 %
26.03.2017 20:52 6,2 C 51 % 1024,0 hPa 0,0 l/m 6,8 km/h (2 Bft) O-NO 70 0 min 0,000 mm 0,0 UV-I 0 W/m -3,2 C 5,9 C 11,3 km/h (2 Bft) 93,18 %
26.03.2017 20:54 6,2 C 51 % 1024,0 hPa 0,0 l/m 5,0 km/h (1 Bft) O-NO 71 0 min 0,000 mm 0,0 UV-I 0 W/m -3,2 C 6,2 C 8,0 km/h (2 Bft) 94,00 %
26.03.2017 20:56 6,2 C 52 % 1024,0 hPa 0,0 l/m 5,9 km/h (2 Bft) O-NO 77 0 min 0,000 mm 0,0 UV-I 0 W/m -2,9 C 6,2 C 8,0 km/h (2 Bft) 89,47 %
26.03.2017 20:58 6,1 C 52 % 1024,1 hPa 0,0 l/m 5,5 km/h (1 Bft) O-NO 74 0 min 0,000 mm 0,0 UV-I 0 W/m -3,0 C 6,1 C 8,0 km/h (2 Bft) 94,34 %
26.03.2017 21:00 6,1 C 51 % 1024,1 hPa 0,0 l/m 5,7 km/h (1 Bft) O-NO 69 0 min 0,000 mm 0,0 UV-I 0 W/m -3,3 C 6,1 C 6,4 km/h (2 Bft) 91,49 %
26.03.2017 21:02 6,1 C 51 % 1024,1 hPa 0,0 l/m 4,2 km/h (1 Bft) O-NO 69 0 min 0,051 mm 0,0 UV-I 0 W/m -3,3 C 6,1 C 6,4 km/h (2 Bft) 96,00 %
26.03.2017 21:04 6,1 C 52 % 1024,1 hPa 0,0 l/m 3,1 km/h (1 Bft) O-NO 69 0 min 0,000 mm 0,0 UV-I 0 W/m -3,0 C 6,1 C 4,8 km/h (1 Bft) 94,74 %
26.03.2017 21:06 6,0 C 52 % 1024,1 hPa 0,0 l/m 2,8 km/h (1 Bft) O-NO 69 0 min 0,000 mm 0,0 UV-I 0 W/m -3,1 C 6,0 C 4,8 km/h (1 Bft) 96,00 %
26.03.2017 21:08 5,9 C 52 % 1024,2 hPa 0,0 l/m 2,8 km/h (1 Bft) O-NO 69 0 min 0,000 mm 0,0 UV-I 0 W/m -3,2 C 5,9 C 4,8 km/h (1 Bft) 86,84 %
26.03.2017 21:10 5,8 C 52 % 1024,3 hPa 0,0 l/m 3,1 km/h (1 Bft) O-NO 69 0 min 0,000 mm 0,0 UV-I 0 W/m -3,3 C 5,8 C 4,8 km/h (1 Bft) 96,23 %
26.03.2017 21:12 5,8 C 52 % 1024,2 hPa 0,0 l/m 2,5 km/h (1 Bft) O-NO 69 0 min 0,000 mm 0,0 UV-I 0 W/m -3,3 C 5,8 C 4,8 km/h (1 Bft) 98,00 %
26.03.2017 21:14 5,8 C 52 % 1024,2 hPa 0,0 l/m 3,6 km/h (1 Bft) O-NO 69 0 min 0,000 mm 0,0 UV-I 0 W/m -3,3 C 5,8 C 4,8 km/h (1 Bft) 94,00 %
26.03.2017 21:16 5,8 C 52 % 1024,3 hPa 0,0 l/m 3,3 km/h (1 Bft) O-NO 69 0 min 0,000 mm 0,0 UV-I 0 W/m -3,3 C 5,8 C 4,8 km/h (1 Bft) 92,00 %
26.03.2017 21:18 5,8 C 52 % 1024,3 hPa 0,0 l/m 3,7 km/h (1 Bft) O-NO 69 0 min 0,000 mm 0,0 UV-I 0 W/m -3,3 C 5,8 C 6,4 km/h (2 Bft) 100,00 %
26.03.2017 21:20 5,8 C 52 % 1024,3 hPa 0,0 l/m 3,5 km/h (1 Bft) O-NO 69 0 min 0,000 mm 0,0 UV-I 0 W/m -3,3 C 5,8 C 4,8 km/h (1 Bft) 89,36 %
26.03.2017 21:22 5,8 C 52 % 1024,3 hPa 0,0 l/m 3,6 km/h (1 Bft) O-NO 69 0 min 0,000 mm 0,0 UV-I 0 W/m -3,3 C 5,8 C 4,8 km/h (1 Bft) 97,87 %
26.03.2017 21:24 5,7 C 53 % 1024,3 hPa 0,0 l/m 3,4 km/h (1 Bft) O-NO 69 0 min 0,000 mm 0,0 UV-I 0 W/m -3,1 C 5,7 C 4,8 km/h (1 Bft) 95,74 %
26.03.2017 21:26 5,7 C 53 % 1024,3 hPa 0,0 l/m 3,9 km/h (1 Bft) O-NO 69 0 min 0,000 mm 0,0 UV-I 0 W/m -3,1 C 5,7 C 6,4 km/h (2 Bft) 98,00 %
26.03.2017 21:28 5,6 C 53 % 1024,4 hPa 0,0 l/m 3,8 km/h (1 Bft) O-NO 69 0 min 0,000 mm 0,0 UV-I 0 W/m -3,2 C 5,6 C 4,8 km/h (1 Bft) 96,00 %
26.03.2017 21:30 5,6 C 53 % 1024,4 hPa 0,0 l/m 5,0 km/h (1 Bft) O 81 0 min 0,000 mm 0,0 UV-I 0 W/m -3,2 C 5,6 C 8,0 km/h (2 Bft) 97,22 %
26.03.2017 21:32 5,7 C 53 % 1024,4 hPa 0,0 l/m 6,3 km/h (2 Bft) O-NO 76 0 min 0,000 mm 0,0 UV-I 0 W/m -3,1 C 5,7 C 8,0 km/h (2 Bft) 96,43 %
26.03.2017 21:34 5,7 C 53 % 1024,4 hPa 0,0 l/m 6,5 km/h (2 Bft) O-NO 75 0 min 0,000 mm 0,0 UV-I 0 W/m -3,1 C 5,6 C 8,0 km/h (2 Bft) 100,00 %
26.03.2017 21:36 5,7 C 52 % 1024,4 hPa 0,0 l/m 6,0 km/h (2 Bft) O 80 0 min 0,000 mm 0,0 UV-I 0 W/m -3,4 C 5,7 C 8,0 km/h (2 Bft) 95,12 %
26.03.2017 21:38 5,8 C 52 % 1024,3 hPa 0,0 l/m 7,1 km/h (2 Bft) O 85 0 min 0,000 mm 0,0 UV-I 0 W/m -3,3 C 5,2 C 11,3 km/h (2 Bft) 100,00 %
26.03.2017 21:40 5,8 C 52 % 1024,4 hPa 0,0 l/m 7,8 km/h (2 Bft) O-NO 77 0 min 0,000 mm 0,0 UV-I 0 W/m -3,3 C 4,6 C 11,3 km/h (2 Bft) 96,23 %
26.03.2017 21:42 5,8 C 51 % 1024,4 hPa 0,0 l/m 7,1 km/h (2 Bft) O 83 0 min 0,000 mm 0,0 UV-I 0 W/m -3,5 C 5,2 C 11,3 km/h (2 Bft) 91,49 %
26.03.2017 21:44 5,8 C 51 % 1024,4 hPa 0,0 l/m 5,6 km/h (1 Bft) O 91 0 min 0,000 mm 0,0 UV-I 0 W/m -3,5 C 5,8 C 9,7 km/h (2 Bft) 94,74 %
26.03.2017 21:46 5,7 C 52 % 1024,5 hPa 0,0 l/m 5,1 km/h (1 Bft) O 80 0 min 0,000 mm 0,0 UV-I 0 W/m -3,4 C 5,7 C 6,4 km/h (2 Bft) 98,11 %
26.03.2017 21:48 5,7 C 51 % 1024,5 hPa 0,0 l/m 5,1 km/h (1 Bft) O-NO 75 0 min 0,000 mm 0,0 UV-I 0 W/m -3,6 C 5,7 C 8,0 km/h (2 Bft) 90,24 %
26.03.2017 21:50 5,6 C 51 % 1024,5 hPa 0,0 l/m 6,4 km/h (2 Bft) O-NO 76 0 min 0,000 mm 0,0 UV-I 0 W/m -3,7 C 5,6 C 11,3 km/h (2 Bft) 93,62 %
26.03.2017 21:52 5,6 C 51 % 1024,6 hPa 0,0 l/m 6,8 km/h (2 Bft) O 83 0 min 0,000 mm 0,0 UV-I 0 W/m -3,7 C 5,3 C 9,7 km/h (2 Bft) 94,34 %
26.03.2017 21:54 5,7 C 51 % 1024,6 hPa 0,0 l/m 6,2 km/h (2 Bft) O 79 0 min 0,000 mm 0,0 UV-I 0 W/m -3,6 C 5,7 C 8,0 km/h (2 Bft) 92,11 %
26.03.2017 21:56 5,7 C 51 % 1024,6 hPa 0,0 l/m 6,1 km/h (2 Bft) O-NO 67 0 min 0,000 mm 0,0 UV-I 0 W/m -3,6 C 5,7 C 9,7 km/h (2 Bft) 100,00 %
26.03.2017 21:58 5,7 C 51 % 1024,6 hPa 0,0 l/m 5,0 km/h (1 Bft) O-NO 74 0 min 0,000 mm 0,0 UV-I 0 W/m -3,6 C 5,7 C 6,4 km/h (2 Bft) 94,00 %
26.03.2017 22:00 5,7 C 51 % 1024,6 hPa 0,0 l/m 5,4 km/h (1 Bft) O 93 0 min 0,000 mm 0,0 UV-I 0 W/m -3,6 C 5,7 C 9,7 km/h (2 Bft) 92,45 %
26.03.2017 22:02 5,6 C 51 % 1024,6 hPa 0,0 l/m 7,8 km/h (2 Bft) O 80 0 min 0,025 mm 0,0 UV-I 0 W/m -3,7 C 4,4 C 11,3 km/h (2 Bft) 86,36 %
26.03.2017 22:04 5,6 C 52 % 1024,6 hPa 0,0 l/m 7,5 km/h (2 Bft) O 80 0 min 0,000 mm 0,0 UV-I 0 W/m -3,5 C 4,6 C 11,3 km/h (2 Bft) 97,87 %
26.03.2017 22:06 5,6 C 52 % 1024,6 hPa 0,0 l/m 7,7 km/h (2 Bft) O-NO 73 0 min 0,000 mm 0,0 UV-I 0 W/m -3,5 C 4,5 C 11,3 km/h (2 Bft) 97,73 %
26.03.2017 22:08 5,6 C 51 % 1024,6 hPa 0,0 l/m 9,1 km/h (2 Bft) O-NO 78 0 min 0,000 mm 0,0 UV-I 0 W/m -3,7 C 3,4 C 12,9 km/h (3 Bft) 97,78 %
26.03.2017 22:10 5,5 C 53 % 1024,5 hPa 0,0 l/m 6,2 km/h (2 Bft) O 86 0 min 0,000 mm 0,0 UV-I 0 W/m -3,3 C 5,5 C 11,3 km/h (2 Bft) 98,00 %
26.03.2017 22:12 5,4 C 52 % 1024,5 hPa 0,0 l/m 7,8 km/h (2 Bft) O 98 0 min 0,000 mm 0,0 UV-I 0 W/m -3,7 C 4,2 C 11,3 km/h (2 Bft) 97,37 %
26.03.2017 22:14 5,4 C 52 % 1024,6 hPa 0,0 l/m 7,4 km/h (2 Bft) O 79 0 min 0,000 mm 0,0 UV-I 0 W/m -3,7 C 4,5 C 12,9 km/h (3 Bft) 94,92 %
26.03.2017 22:16 5,4 C 52 % 1024,6 hPa 0,0 l/m 8,1 km/h (2 Bft) O-NO 77 0 min 0,000 mm 0,0 UV-I 0 W/m -3,7 C 3,9 C 14,5 km/h (3 Bft) 92,11 %
26.03.2017 22:18 5,4 C 52 % 1024,6 hPa 0,0 l/m 8,6 km/h (2 Bft) O-SO 105 0 min 0,000 mm 0,0 UV-I 0 W/m -3,7 C 3,5 C 12,9 km/h (3 Bft) 100,00 %
26.03.2017 22:20 5,4 C 53 % 1024,6 hPa 0,0 l/m 9,5 km/h (2 Bft) O-NO 78 0 min 0,000 mm 0,0 UV-I 0 W/m -3,4 C 2,9 C 14,5 km/h (3 Bft) 100,00 %
26.03.2017 22:23 5,3 C 52 % 1024,6 hPa 0,0 l/m 8,5 km/h (2 Bft) O 93 0 min 0,000 mm 0,0 UV-I 0 W/m -3,7 C 3,5 C 14,5 km/h (3 Bft) 97,65 %
26.03.2017 22:24 5,3 C 52 % 1024,6 hPa 0,0 l/m 5,6 km/h (1 Bft) O-NO 76 0 min 0,000 mm 0,0 UV-I 0 W/m -3,7 C 5,3 C 6,4 km/h (2 Bft) 100,00 %
26.03.2017 22:26 5,3 C 52 % 1024,6 hPa 0,0 l/m 8,0 km/h (2 Bft) O 80 0 min 0,000 mm 0,0 UV-I 0 W/m -3,7 C 3,9 C 14,5 km/h (3 Bft) 98,00 %
26.03.2017 22:28 5,4 C 51 % 1024,7 hPa 0,0 l/m 9,2 km/h (2 Bft) O-NO 74 0 min 0,000 mm 0,0 UV-I 0 W/m -3,9 C 3,1 C 12,9 km/h (3 Bft) 100,00 %
26.03.2017 22:30 5,4 C 51 % 1024,6 hPa 0,0 l/m 6,1 km/h (2 Bft) O-NO 76 0 min 0,000 mm 0,0 UV-I 0 W/m -3,9 C 5,4 C 8,0 km/h (2 Bft) 97,73 %
26.03.2017 22:33 5,4 C 51 % 1024,7 hPa 0,0 l/m 7,3 km/h (2 Bft) O 87 0 min 0,000 mm 0,0 UV-I 0 W/m -3,9 C 4,6 C 12,9 km/h (3 Bft) 96,92 %
26.03.2017 22:34 5,4 C 51 % 1024,7 hPa 0,0 l/m 4,7 km/h (1 Bft) O 80 0 min 0,000 mm 0,0 UV-I 0 W/m -3,9 C 5,4 C 9,7 km/h (2 Bft) 100,00 %
26.03.2017 22:36 5,4 C 51 % 1024,7 hPa 0,0 l/m 6,0 km/h (2 Bft) O-NO 72 0 min 0,000 mm 0,0 UV-I 0 W/m -3,9 C 5,4 C 9,7 km/h (2 Bft) 95,12 %
26.03.2017 22:38 5,4 C 52 % 1024,8 hPa 0,0 l/m 5,6 km/h (1 Bft) O-NO 78 0 min 0,000 mm 0,0 UV-I 0 W/m -3,7 C 5,4 C 9,7 km/h (2 Bft) 100,00 %
26.03.2017 22:40 5,4 C 51 % 1024,8 hPa 0,0 l/m 4,7 km/h (1 Bft) O-NO 78 0 min 0,000 mm 0,0 UV-I 0 W/m -3,9 C 5,4 C 6,4 km/h (2 Bft) 100,00 %
26.03.2017 22:42 5,3 C 53 % 1024,8 hPa 0,0 l/m 3,9 km/h (1 Bft) O-NO 75 0 min 0,000 mm 0,0 UV-I 0 W/m -3,5 C 5,3 C 8,0 km/h (2 Bft) 98,00 %
26.03.2017 22:44 5,0 C 55 % 1024,8 hPa 0,0 l/m 3,5 km/h (1 Bft) O-NO 75 0 min 0,000 mm 0,0 UV-I 0 W/m -3,3 C 5,0 C 4,8 km/h (1 Bft) 97,87 %
26.03.2017 22:46 4,7 C 57 % 1024,9 hPa 0,0 l/m 3,7 km/h (1 Bft) O-NO 75 0 min 0,000 mm 0,0 UV-I 0 W/m -3,1 C 4,7 C 4,8 km/h (1 Bft) 100,00 %
26.03.2017 22:48 4,4 C 58 % 1024,9 hPa 0,0 l/m 4,7 km/h (1 Bft) O-NO 69 0 min 0,000 mm 0,0 UV-I 0 W/m -3,1 C 4,4 C 6,4 km/h (2 Bft) 98,21 %
26.03.2017 22:50 4,2 C 59 % 1024,9 hPa 0,0 l/m 3,8 km/h (1 Bft) O-NO 69 0 min 0,000 mm 0,0 UV-I 0 W/m -3,1 C 4,2 C 4,8 km/h (1 Bft) 100,00 %
26.03.2017 22:52 4,2 C 58 % 1025,0 hPa 0,0 l/m 4,2 km/h (1 Bft) O-NO 69 0 min 0,000 mm 0,0 UV-I 0 W/m -3,3 C 4,2 C 4,8 km/h (1 Bft) 97,37 %
26.03.2017 22:54 4,3 C 58 % 1024,9 hPa 0,0 l/m 4,9 km/h (1 Bft) O-NO 69 0 min 0,000 mm 0,0 UV-I 0 W/m -3,2 C 4,3 C 6,4 km/h (2 Bft) 100,00 %
26.03.2017 22:56 4,3 C 58 % 1024,9 hPa 0,0 l/m 5,3 km/h (1 Bft) O-NO 69 0 min 0,000 mm 0,0 UV-I 0 W/m -3,2 C 4,3 C 6,4 km/h (2 Bft) 98,00 %
26.03.2017 22:58 4,3 C 57 % 1024,8 hPa 0,0 l/m 5,7 km/h (1 Bft) O-NO 67 0 min 0,000 mm 0,0 UV-I 0 W/m -3,5 C 4,3 C 8,0 km/h (2 Bft) 98,00 %
26.03.2017 23:00 4,3 C 57 % 1024,8 hPa 0,0 l/m 5,5 km/h (1 Bft) O-NO 70 0 min 0,026 mm 0,0 UV-I 0 W/m -3,5 C 4,3 C 6,4 km/h (2 Bft) 95,74 %
26.03.2017 23:02 4,3 C 58 % 1024,8 hPa 0,0 l/m 5,3 km/h (1 Bft) O-NO 59 0 min 0,000 mm 0,0 UV-I 0 W/m -3,2 C 4,3 C 6,4 km/h (2 Bft) 92,68 %
26.03.2017 23:04 4,3 C 58 % 1024,9 hPa 0,0 l/m 4,8 km/h (1 Bft) O-NO 59 0 min 0,000 mm 0,0 UV-I 0 W/m -3,2 C 4,3 C 6,4 km/h (2 Bft) 97,56 %
26.03.2017 23:06 4,3 C 58 % 1024,9 hPa 0,0 l/m 4,3 km/h (1 Bft) O-NO 59 0 min 0,000 mm 0,0 UV-I 0 W/m -3,2 C 4,3 C 4,8 km/h (1 Bft) 98,31 %
26.03.2017 23:08 4,1 C 59 % 1024,9 hPa 0,0 l/m 3,1 km/h (1 Bft) O-NO 59 0 min 0,000 mm 0,0 UV-I 0 W/m -3,2 C 4,1 C 4,8 km/h (1 Bft) 95,12 %
26.03.2017 23:10 4,0 C 59 % 1024,9 hPa 0,0 l/m 3,5 km/h (1 Bft) O-NO 59 0 min 0,000 mm 0,0 UV-I 0 W/m -3,3 C 4,0 C 4,8 km/h (1 Bft) 95,74 %
26.03.2017 23:12 3,8 C 60 % 1025,0 hPa 0,0 l/m 3,4 km/h (1 Bft) O-NO 59 0 min 0,000 mm 0,0 UV-I 0 W/m -3,2 C 3,8 C 4,8 km/h (1 Bft) 95,74 %
26.03.2017 23:14 3,6 C 61 % 1025,0 hPa 0,0 l/m 2,2 km/h (1 Bft) O-NO 59 0 min 0,000 mm 0,0 UV-I 0 W/m -3,2 C 3,6 C 3,2 km/h (1 Bft) 98,00 %
26.03.2017 23:16 3,4 C 62 % 1025,0 hPa 0,0 l/m 1,2 km/h (1 Bft) NO 56 0 min 0,000 mm 0,0 UV-I 0 W/m -3,2 C 3,4 C 3,2 km/h (1 Bft) 97,37 %
26.03.2017 23:18 3,2 C 63 % 1025,0 hPa 0,0 l/m 1,5 km/h (1 Bft) NO 55 0 min 0,000 mm 0,0 UV-I 0 W/m -3,1 C 3,2 C 4,8 km/h (1 Bft) 92,45 %
26.03.2017 23:20 3,1 C 65 % 1025,1 hPa 0,0 l/m 0,1 km/h (0 Bft) NO 55 0 min 0,000 mm 0,0 UV-I 0 W/m -2,8 C 3,1 C 1,6 km/h (1 Bft) 96,00 %
26.03.2017 23:22 3,1 C 65 % 1025,0 hPa 0,0 l/m 1,2 km/h (1 Bft) NO 55 0 min 0,000 mm 0,0 UV-I 0 W/m -2,8 C 3,1 C 3,2 km/h (1 Bft) 94,74 %
26.03.2017 23:24 3,1 C 65 % 1025,0 hPa 0,0 l/m 2,5 km/h (1 Bft) NO 55 0 min 0,000 mm 0,0 UV-I 0 W/m -2,8 C 3,1 C 3,2 km/h (1 Bft) 97,92 %
26.03.2017 23:26 3,1 C 65 % 1025,0 hPa 0,0 l/m 2,2 km/h (1 Bft) NO 55 0 min 0,000 mm 0,0 UV-I 0 W/m -2,8 C 3,1 C 3,2 km/h (1 Bft) 96,00 %
26.03.2017 23:28 3,0 C 65 % 1025,0 hPa 0,0 l/m 2,5 km/h (1 Bft) NO 55 0 min 0,000 mm 0,0 UV-I 0 W/m -2,9 C 3,0 C 3,2 km/h (1 Bft) 92,31 %
26.03.2017 23:30 2,9 C 66 % 1025,1 hPa 0,0 l/m 2,7 km/h (1 Bft) NO 55 0 min 0,000 mm 0,0 UV-I 0 W/m -2,8 C 2,9 C 3,2 km/h (1 Bft) 97,78 %
26.03.2017 23:32 2,8 C 66 % 1025,1 hPa 0,0 l/m 2,5 km/h (1 Bft) NO 55 0 min 0,000 mm 0,0 UV-I 0 W/m -2,9 C 2,8 C 4,8 km/h (1 Bft) 96,00 %
26.03.2017 23:34 2,8 C 66 % 1025,1 hPa 0,0 l/m 2,0 km/h (1 Bft) NO 55 0 min 0,000 mm 0,0 UV-I 0 W/m -2,9 C 2,8 C 3,2 km/h (1 Bft) 92,11 %
26.03.2017 23:36 2,8 C 66 % 1025,2 hPa 0,0 l/m 2,4 km/h (1 Bft) NO 55 0 min 0,000 mm 0,0 UV-I 0 W/m -2,9 C 2,8 C 4,8 km/h (1 Bft) 95,74 %
26.03.2017 23:38 2,9 C 65 % 1025,2 hPa 0,0 l/m 2,0 km/h (1 Bft) NO 55 0 min 0,000 mm 0,0 UV-I 0 W/m -3,0 C 2,9 C 3,2 km/h (1 Bft) 100,00 %
26.03.2017 23:40 3,1 C 65 % 1025,2 hPa 0,0 l/m 1,3 km/h (1 Bft) NO 55 0 min 0,000 mm 0,0 UV-I 0 W/m -2,8 C 3,1 C 3,2 km/h (1 Bft) 98,00 %
26.03.2017 23:42 3,0 C 65 % 1025,3 hPa 0,0 l/m 1,5 km/h (1 Bft) NO 55 0 min 0,000 mm 0,0 UV-I 0 W/m -2,9 C 3,0 C 3,2 km/h (1 Bft) 93,62 %
26.03.2017 23:44 2,9 C 66 % 1025,3 hPa 0,0 l/m 0,6 km/h (0 Bft) NO 55 0 min 0,000 mm 0,0 UV-I 0 W/m -2,8 C 2,9 C 1,6 km/h (1 Bft) 100,00 %
26.03.2017 23:46 2,9 C 66 % 1025,3 hPa 0,0 l/m 0,0 km/h (0 Bft) NO 55 0 min 0,000 mm 0,0 UV-I 0 W/m -2,8 C 2,9 C 0,0 km/h (0 Bft) 94,74 %
26.03.2017 23:48 2,7 C 66 % 1025,3 hPa 0,0 l/m 0,0 km/h (0 Bft) NO 55 0 min 0,000 mm 0,0 UV-I 0 W/m -3,0 C 2,7 C 1,6 km/h (1 Bft) 98,39 %
26.03.2017 23:50 2,6 C 68 % 1025,3 hPa 0,0 l/m 1,4 km/h (1 Bft) NO 55 0 min 0,000 mm 0,0 UV-I 0 W/m -2,7 C 2,6 C 1,6 km/h (1 Bft) 100,00 %
26.03.2017 23:52 2,4 C 69 % 1025,3 hPa 0,0 l/m 0,4 km/h (0 Bft) NO 55 0 min 0,000 mm 0,0 UV-I 0 W/m -2,7 C 2,4 C 3,2 km/h (1 Bft) 97,37 %
26.03.2017 23:54 1,9 C 72 % 1025,3 hPa 0,0 l/m 1,0 km/h (0 Bft) NO 55 0 min 0,000 mm 0,0 UV-I 0 W/m -2,6 C 1,9 C 1,6 km/h (1 Bft) 96,23 %
26.03.2017 23:56 1,4 C 74 % 1025,2 hPa 0,0 l/m 0,1 km/h (0 Bft) NO 55 0 min 0,000 mm 0,0 UV-I 0 W/m -2,7 C 1,4 C 1,6 km/h (1 Bft) 100,00 %
26.03.2017 23:58 1,2 C 76 % 1025,3 hPa 0,0 l/m 2,4 km/h (1 Bft) NO 55 0 min 0,000 mm 0,0 UV-I 0 W/m -2,5 C 1,2 C 3,2 km/h (1 Bft) 98,18 %
_ Min-Zeit 23:58 13:10 04:32 - 23:46 - - - - - - 13:10 09:32 23:46 07:14
Minimum _ 1,2 C 30 % 1019,7 hPa - 0,0 km/h (0 Bft) - - - - - - -7,3 C -4,8 C 0,0 km/h (0 Bft) 85,37 %
_ Max-Zeit 16:08 07:18 23:42 00:00 13:08 - - 16:23 14:00 12:38 13:12 10:46 17:58 13:10 00:06
Maximum _ 11,3 C 85 % 1025,3 hPa 0,0 l/m 35,8 km/h
O-NO (5 Bft)
- - 3 min 0,533 mm 2,5 UV-I 762 W/m 2,4 C 8,1 C 48,3 km/h
O-NO (6 Bft)
100,00 %
Durchschnitt _ 6,6 C 61 % 1021,9 hPa #0,0 l/m 13,5 km/h (3 Bft) O-NO - #11:12 h #3,912 mm 1,7 UV-I 412 W/m -1,0 C 2,6 C 19,3 km/h (3 Bft) 95,82 %